[{"header": {"dx": 0.06612293990616946, "dy": 0.0552356325346848, "nx": 98, "ny": 59, "la1": 35.046912555036876, "la2": 31.78801023549047, "lo1": -121.43107172385933, "lo2": -114.95102361305473, "refTime": "2026041612", "parameterCategory": 1, "parameterNumber": 2}, "data": [8.46, 8.2, 8.48, 7.69, 7.46, 7.4, 7.2, 6.56, 7.28, 7.06, 5.73, 4.28, 5.15, 5.8, 0.0, -2.82, -5.2, -8.94, -10.4, -11.87, -12.79, -12.96, -11.46, -10.38, -10.38, -10.4, -11.71, -12.14, -12.07, -11.45, -11.2, -0.0, -0.0, 6.2, 8.55, 9.13, 9.29, 9.39, 9.26, 10.14, 9.54, 10.6, 10.68, 10.48, 11.88, 14.49, 18.72, 20.7, 16.57, 12.39, 4.52, 9.44, 10.75, 11.06, 11.77, 12.22, 12.65, 13.51, 13.38, 12.99, 13.39, 13.19, 13.43, 12.5, 11.53, 11.9, 12.07, 12.36, 13.38, 14.39, 14.39, 14.3, 13.99, 13.42, 13.02, 13.68, 13.43, 13.75, -10.43, -12.65, -11.17, -11.99, -12.96, -11.87, -11.45, -11.62, -12.07, -11.18, 7.9, 10.0, 10.87, 11.37, 11.53, 12.65, 13.7, 14.3, 12.79, 12.46, 8.46, 7.93, 8.2, 8.0, 7.8, 7.6, 7.2, 7.0, 7.21, 7.43, 6.64, 5.46, 7.78, 8.85, 9.17, 5.4, 0.0, -6.7, -9.66, -9.86, -12.33, -12.46, -12.96, -12.58, -9.2, -7.9, -9.3, -11.71, -12.07, -12.52, -14.3, -12.39, -3.96, -0.0, 5.69, 8.3, 7.98, 8.94, 9.32, 9.63, 11.44, 10.91, 10.37, 10.84, 14.0, 17.24, 19.3, 16.43, 13.86, 6.6, 9.44, 11.54, 12.16, 12.0, 11.87, 12.82, 12.65, 12.65, 13.38, 12.99, 12.99, 13.39, 12.07, 11.35, 10.94, 10.82, 11.57, 11.9, 12.94, 13.97, 14.56, 14.39, 14.94, 13.59, 11.87, 12.51, 13.39, 13.75, -10.43, -12.65, -11.17, -11.99, -12.96, -11.87, -11.45, -11.62, -12.07, -11.18, 7.9, 10.0, 10.87, 11.37, 11.53, 12.65, 13.7, 14.3, 12.79, 12.46, 8.46, 7.93, 8.2, 7.71, 7.69, 8.12, 7.74, 7.57, 7.54, 6.99, 6.98, 5.57, 6.67, 8.53, 10.4, 11.28, 10.4, 6.45, -5.4, -10.12, -9.3, -10.87, -11.5, -13.23, -13.59, -9.2, -8.58, -8.93, -11.18, -11.28, -13.19, -14.75, -14.3, -0.0, 8.06, 8.94, 8.49, 8.9, 9.13, 10.2, 9.27, 10.81, 12.64, 14.54, 15.8, 16.76, 14.51, 13.41, 10.43, 12.37, 12.89, 13.29, 13.29, 12.65, 11.03, 11.87, 12.29, 12.94, 12.99, 13.19, 12.99, 12.6, 11.69, 10.82, 10.82, 10.63, 11.8, 12.4, 12.73, 13.8, 14.2, 14.39, 15.04, 14.75, 13.19, 13.99, 14.42, 14.53, 13.57, -11.8, -8.58, -9.48, -12.96, -11.71, -11.62, -11.62, -7.9, 11.18, 10.6, 10.73, 12.5, 12.27, 11.64, 12.27, 14.3, 10.73, 11.12, 12.14, 7.93, 7.93, 8.2, 8.27, 8.0, 7.8, 7.6, 8.11, 7.36, 7.32, 7.26, 6.31, 6.21, 7.26, 8.22, 9.3, 10.79, 10.35, 6.45, -8.53, -9.7, -10.0, -10.27, -10.17, -11.56, -12.96, -9.97, -9.33, -9.83, -10.6, -8.53, -9.8, -8.68, -4.95, 5.6, 8.58, 8.82, 9.32, 9.0, 9.48, 11.7, 13.59, 13.91, 13.53, 12.65, 12.39, 13.86, 13.28, 13.86, 14.23, 13.86, 13.59, 12.9, 11.64, 11.03, 11.52, 12.45, 12.99, 12.99, 13.15, 13.39, 12.36, 11.57, 10.3, 9.8, 10.92, 11.53, 11.47, 13.12, 14.5, 14.26, 14.18, 14.53, 14.47, 14.3, 13.86, 14.75, 15.05, 14.42, -9.8, -9.48, -9.48, -12.96, -11.03, -11.18, -8.22, 8.53, 11.62, 10.38, 12.11, 13.03, 11.8, 11.09, 13.41, -0.0, 6.9, 11.6, 12.42, 7.93, 7.93, 7.93, 8.0, 7.71, 8.3, 8.12, 7.95, 7.67, 7.98, 6.65, 5.93, 5.99, 5.98, 6.98, 7.26, 9.08, 9.67, 9.3, -2.93, -11.6, -11.87, -11.03, -11.18, -9.96, -11.61, -12.27, -12.07, -7.9, 0.0, 0.0, -5.0, -4.72, -3.29, 1.77, 7.1, 7.54, 9.8, 10.25, 10.71, 11.13, 11.6, 11.77, 13.63, 13.86, 13.82, 14.14, 14.27, 14.71, 14.99, 13.7, 12.79, 12.5, 11.1, 11.1, 12.09, 13.19, 13.19, 13.39, 13.15, 13.35, 12.17, 10.82, 9.87, 9.92, 11.7, 12.01, 11.7, 12.96, 15.61, 16.78, 15.99, 16.39, 15.59, 15.43, 12.71, 12.87, 14.3, 12.74, -0.0, -12.96, 12.96, -8.53, -10.6, -11.18, -11.62, 11.71, 11.03, 11.72, 13.03, 12.5, 11.6, 12.52, -0.0, -0.0, 10.73, 12.83, 12.52, 7.93, 7.93, 7.93, 8.0, 8.27, 8.0, 7.8, 8.25, 7.53, 7.82, 7.25, 5.77, 5.99, 5.98, 5.75, 6.98, 6.98, 8.22, 8.59, 0.0, -8.75, -10.43, -11.99, -12.33, -11.5, -10.04, -8.53, -7.54, -5.8, 0.0, 3.11, 4.6, 0.0, 0.0, 1.71, 4.08, 6.0, 8.66, 10.34, 8.72, 6.72, 10.12, 13.53, 14.3, 14.3, 14.73, 14.65, 14.27, 14.3, 14.23, 13.27, 12.66, 11.75, 11.64, 11.8, 13.19, 13.43, 13.43, 13.77, 13.47, 12.79, 11.16, 9.8, 10.17, 10.83, 12.01, 12.33, 11.13, 12.52, 16.22, 19.59, 17.99, 15.54, 16.36, 17.02, 16.27, 13.41, 12.96, 12.04, 5.8, -10.04, 0.0, 0.0, -8.22, -8.22, 0.0, 7.54, 11.5, 12.95, 12.27, 11.12, 12.72, -0.0, -5.8, -0.0, 13.41, 12.96, 12.44, 7.93, 7.93, 7.93, 7.74, 8.0, 7.71, 8.09, 8.12, 8.39, 7.45, 6.67, 5.54, 6.76, 7.9, 9.66, 7.59, 7.9, 7.26, 8.22, 6.2, -5.75, -10.38, -10.22, -8.85, -8.15, -6.76, -5.64, -3.82, -4.93, -2.95, 0.0, 8.8, 9.83, 8.05, 5.43, 4.43, 4.81, 8.83, 8.22, 5.1, 3.96, 5.11, 8.31, 12.16, 13.74, 14.23, 15.61, 15.15, 13.86, 13.86, 14.19, 12.98, 12.42, 12.81, 12.79, 12.66, 13.28, 13.28, 13.8, 13.15, 11.99, 10.09, 10.01, 10.69, 10.99, 11.06, 12.63, 12.57, 12.82, 16.44, 19.39, 18.26, 15.56, 15.6, 16.3, 16.3, 14.53, 12.72, 11.99, 13.01, 6.45, 0.0, 0.0, -2.37, 0.0, 3.04, 7.69, 10.69, 11.72, 11.64, 9.48, 13.41, -6.0, -6.0, 9.48, 12.96, 12.39, 11.98, 7.74, 7.74, 7.74, 7.74, 8.0, 7.71, 7.8, 8.19, 8.03, 7.71, 6.36, 5.26, 5.77, 7.26, 10.35, 8.58, 9.08, 9.82, 8.75, 8.82, 10.0, 7.9, -6.21, -8.15, -7.26, -4.9, -3.82, -5.08, -6.16, -6.2, -3.53, 0.0, 2.71, 7.59, 7.9, 6.41, 5.0, 6.2, 8.85, 5.98, 3.53, 3.82, 5.36, 7.44, 9.71, 12.57, 15.43, 15.93, 14.18, 14.11, 12.27, 12.45, 11.53, 12.03, 12.39, 12.39, 12.66, 12.87, 12.94, 12.18, 10.55, 10.18, 10.75, 10.18, 10.47, 12.78, 13.92, 14.53, 13.99, 15.18, 17.48, 17.92, 15.95, 15.61, 15.17, 14.47, 13.15, 12.33, 12.21, 14.09, 13.84, 5.6, 0.0, 0.0, 1.38, 4.98, 7.44, 9.48, 9.84, 10.37, 12.96, -11.6, -9.48, -0.0, 13.41, 12.52, 11.95, 11.28, 7.74, 7.74, 7.74, 7.74, 8.0, 8.27, 7.8, 7.88, 8.29, 7.38, 6.8, 5.4, 5.11, 5.08, 7.02, 8.53, 9.27, 9.16, 8.82, 9.3, 10.84, 11.62, 11.62, 0.0, -5.4, -5.6, -3.87, -6.98, -7.95, -6.24, -2.52, 0.0, 1.13, 3.47, 5.35, 6.17, 5.95, 5.32, 6.97, 6.2, 3.04, 3.96, 6.63, 6.65, 7.93, 13.86, 11.38, 14.13, 13.39, 12.65, 12.65, 11.12, 11.16, 12.03, 12.39, 12.39, 12.66, 12.18, 11.76, 11.34, 11.44, 10.75, 10.75, 10.02, 10.3, 13.59, 15.87, 15.41, 14.6, 14.66, 15.87, 16.41, 16.54, 15.65, 14.75, 14.3, 13.8, 12.83, 13.32, 15.12, 15.56, 11.16, 0.0, 0.0, 2.72, 3.96, 6.87, 9.17, 9.77, 11.6, -0.0, -9.17, -9.17, 13.41, 13.41, 12.39, 11.28, 11.71, 7.54, 7.74, 7.74, 7.74, 8.0, 8.0, 8.06, 7.6, 7.76, 7.62, 6.95, 7.03, 5.8, 4.94, 4.43, 5.6, 6.67, 6.67, 5.99, 5.0, 5.52, 6.2, 9.67, 11.03, 0.0, -5.0, -5.46, -7.56, -8.05, -3.82, 0.0, 1.3, 0.0, 0.0, 1.64, 3.68, 7.59, 6.32, 11.03, 12.52, 8.53, 7.51, 8.53, 9.3, 11.03, 9.17, 7.44, 8.58, 9.77, 10.02, 9.44, 10.43, 11.64, 12.03, 12.39, 13.07, 13.27, 11.88, 11.02, 12.08, 12.51, 9.61, 9.67, 9.35, 10.3, 14.19, 16.6, 14.94, 13.72, 14.3, 14.75, 15.65, 16.09, 16.09, 15.65, 13.82, 12.94, 11.28, 11.86, 14.29, 15.2, 16.54, 0.0, -2.57, 0.0, 2.63, 7.13, 9.8, 11.99, 12.96, 12.96, 12.52, 0.0, 4.1, 11.12, 12.04, 11.72, 11.5, 7.54, 7.54, 7.74, 7.74, 7.74, 8.0, 8.06, 7.92, 7.47, 7.54, 7.39, 7.69, 7.69, 6.69, 5.55, 3.94, 5.3, 5.81, 5.35, 4.16, 2.57, 1.73, 2.89, 10.41, 9.17, -3.39, -5.29, -6.14, -5.7, -2.72, 1.33, 1.62, 0.0, -9.83, -2.39, 2.82, 8.22, 11.28, 11.03, 8.85, 9.17, 11.2, 10.4, 10.8, 11.03, 11.28, 8.53, 7.82, 7.19, 6.0, 9.44, 12.22, 13.65, 14.39, 14.71, 15.84, 16.31, 13.86, 9.83, 12.89, 9.67, 8.0, 7.4, 7.2, 8.53, 12.64, 15.99, 16.34, 15.05, 12.42, 13.44, 14.53, 15.87, 15.85, 14.94, 13.01, 10.55, 9.81, 12.36, 13.77, 14.42, 15.55, 16.09, -9.42, -7.2, 0.0, 10.75, 15.2, 14.3, 13.41, 12.52, 0.0, 0.0, 2.45, 7.54, 9.96, 11.26, 11.6, 7.54, 7.54, 7.74, 7.74, 7.74, 8.0, 7.8, 7.65, 7.92, 8.05, 8.12, 8.12, 8.68, 8.01, 7.44, 6.36, 5.2, 5.08, 5.45, 4.61, 3.0, 0.0, 0.0, 0.0, 13.41, 0.0, 0.0, -8.49, -7.59, -2.6, -2.71, -10.73, -6.44, -6.17, -10.28, 0.0, 4.8, 11.62, -8.22, -8.53, -6.94, -8.53, -11.62, 11.62, 7.59, 10.28, 11.45, 10.41, 10.79, 11.53, 12.79, 15.69, 18.21, 19.64, 18.85, 18.91, 19.84, 18.78, 11.84, 4.38, -0.0, 5.8, 5.51, 3.9, 3.9, 10.19, 15.8, 18.97, 19.64, 16.99, 14.23, 12.93, 13.89, 14.03, 11.97, 10.43, 10.55, 12.45, 12.86, 12.86, 14.39, 15.78, 16.99, 17.88, 18.78, 19.22, 17.43, 15.2, 14.75, 13.86, 12.52, 5.2, 0.0, 2.28, 5.6, 9.17, 9.96, 10.79, 7.54, 7.54, 7.54, 7.74, 7.74, 7.74, 7.8, 7.86, 7.92, 7.98, 8.05, 8.35, 8.35, 8.43, 9.3, 8.38, 7.67, 6.87, 6.27, 5.55, 3.22, 0.0, 0.0, -14.75, -14.3, 13.86, -0.0, -0.0, -2.37, -8.8, -11.18, -10.84, -9.6, -9.2, -9.97, -10.28, -10.28, -11.18, -10.84, -10.0, -9.97, -9.3, -9.3, -9.83, 10.28, 10.73, 8.22, 8.53, 10.79, 11.99, 11.2, 11.99, 12.42, 13.89, 16.12, 18.33, 19.91, 22.12, 16.09, -6.7, -3.9, 1.83, 3.78, -0.0, -0.0, 5.53, 12.4, 16.63, 19.67, 21.74, 21.49, 21.01, 13.75, 10.09, 8.8, 10.58, 13.19, 13.8, 13.65, 15.36, 15.27, 14.79, 15.27, 16.05, 16.99, 18.78, 19.67, 17.53, 16.09, 14.3, 13.86, 11.62, 5.0, 2.28, 5.6, 8.3, 9.17, 9.48, 7.54, 7.54, 7.74, 7.74, 7.74, 7.74, 7.8, 7.6, 7.86, 8.41, 8.24, 8.05, 8.35, 8.84, 8.9, 8.81, 8.83, 8.78, 7.93, 6.52, 5.5, 3.93, 0.0, -10.43, -12.79, -14.3, -13.86, -11.53, -9.48, -9.77, -10.18, -10.41, -11.18, -9.83, -9.83, -9.83, -9.83, -10.28, -9.97, -8.58, -9.2, -9.2, -8.93, -7.27, -0.0, -0.0, 0.0, 3.53, 6.45, 7.51, 6.94, 6.21, 7.54, 8.53, 10.41, 12.14, 15.65, 19.22, 21.46, -3.36, -7.69, -0.0, -0.0, -0.0, -0.0, -0.0, 6.47, 10.41, 11.9, 16.12, 16.75, 15.8, 18.33, 7.27, 8.73, 12.65, 14.79, 15.59, 16.99, 15.19, 16.99, 11.7, 13.27, 13.34, 15.09, 16.22, 17.46, 17.02, 16.91, 16.54, 14.3, 11.18, 10.6, 6.94, 7.82, 9.17, 10.37, 9.17, 7.54, 7.54, 7.74, 7.74, 7.74, 7.93, 7.74, 8.3, 8.36, 8.14, 8.47, 8.53, 8.53, 8.84, 9.02, 9.16, 8.59, 9.13, 9.08, 8.05, 7.03, 7.69, 5.31, 0.0, -10.12, -13.15, -13.86, -13.44, -11.99, -12.45, -11.62, -10.08, -11.18, -10.28, -9.2, -9.2, -9.6, -8.8, -10.6, -7.87, -8.23, -9.6, -8.18, -6.95, -6.95, -6.95, -6.95, -10.28, 0.0, 0.0, 6.45, 7.9, 9.6, 9.39, -0.0, 10.73, 5.2, 12.03, 18.33, 5.51, -5.8, -9.17, -4.38, -4.52, -4.66, -0.0, 11.7, 15.19, 8.93, 12.07, 13.16, 9.6, -0.0, 0.0, 8.38, 14.18, 17.43, 14.88, 12.01, 15.19, 15.59, 12.01, 12.02, 11.99, 10.79, 13.29, 14.56, 15.87, 16.09, 16.54, 16.99, 13.41, 11.28, 12.14, 11.99, 9.17, 5.8, 5.8, 7.54, 7.54, 7.74, 7.74, 7.74, 7.93, 7.74, 8.25, 8.09, 8.14, 8.19, 8.24, 8.53, 8.28, 8.72, 9.42, 9.5, 8.59, 9.13, 8.66, 8.56, 8.05, 7.69, 2.89, -4.66, -12.27, -13.86, -13.44, -12.45, -12.45, -12.45, -11.84, -10.28, -10.73, 0.0, -4.0, -9.2, -9.75, -9.6, -8.82, -8.4, -7.81, -8.55, -8.18, -6.95, -6.64, -6.95, -8.55, -7.27, -7.27, 11.18, 11.62, -0.0, -0.0, -0.0, 9.83, 7.27, 9.67, 14.75, 4.95, -0.0, -10.4, -10.4, -8.53, -12.07, 12.96, 0.0, 15.2, 8.93, 11.8, 12.87, -0.0, -16.79, -4.55, 3.69, 18.33, 8.6, 8.4, 12.96, 12.96, 18.33, 12.96, 12.01, 13.19, 10.8, 10.6, 11.5, 12.79, 12.96, 13.86, 15.65, 12.04, 12.58, 13.15, 12.14, 11.45, 5.6, 5.6, 7.54, 7.54, 7.74, 7.74, 7.74, 7.93, 7.93, 8.25, 8.3, 8.09, 7.92, 8.47, 8.24, 8.43, 8.46, 9.12, 9.5, 8.86, 8.59, 8.46, 8.38, 8.73, 8.59, 8.31, 3.47, 0.0, -13.19, -14.75, -14.31, -13.28, -12.45, -12.71, -11.18, -11.18, -6.32, -9.39, -9.64, -9.96, -9.2, -7.87, -8.8, -8.0, -9.2, -7.44, -8.18, -8.18, -8.55, -8.55, -7.27, -7.27, -9.2, -7.59, -0.0, -0.0, -0.0, 10.28, 10.28, 9.6, 5.4, 5.8, -0.0, -10.0, -10.18, -9.6, -9.6, 10.28, 11.62, 0.0, 13.86, 17.43, 21.9, -14.66, -10.73, -7.8, -12.64, -8.4, -0.0, 7.3, 11.8, 11.27, 9.92, 15.59, 15.19, 12.65, 14.3, 11.62, 8.53, 12.96, 13.01, 13.15, 14.31, 12.72, 11.62, 12.04, 12.04, 11.21, 8.85, 8.85, 7.54, 7.54, 7.74, 7.74, 7.74, 7.93, 7.93, 8.25, 8.04, 8.56, 8.14, 8.19, 8.68, 8.43, 8.83, 8.85, 9.5, 9.5, 9.16, 8.24, 8.17, 8.78, 9.1, 8.97, 10.91, 12.27, 10.75, 0.0, -15.2, -14.75, -13.99, -12.89, -12.39, -11.02, -10.62, -10.08, -9.46, -10.14, -9.64, -9.54, -9.33, -9.33, -9.33, -9.75, -8.55, -8.55, -10.18, -9.75, -9.2, -9.2, -9.2, -7.27, -7.27, -0.0, -0.0, 7.27, 9.2, 9.6, 11.18, 11.18, 12.07, -10.4, -10.18, -8.93, -7.59, -6.95, -4.2, 0.0, 5.4, 7.0, -6.36, -13.91, -11.8, -12.87, -17.43, -12.01, -0.0, 5.94, 10.91, 11.73, 12.33, 14.3, 17.88, 9.48, 12.52, 0.0, 7.19, 11.6, 10.73, 11.9, 13.39, 12.46, 10.4, 10.35, 12.04, 12.04, 10.41, 10.41, 7.54, 7.54, 7.54, 7.54, 7.74, 7.74, 7.93, 8.25, 8.25, 8.78, 8.6, 8.88, 8.64, 8.83, 8.16, 8.72, 8.86, 9.14, 8.51, 8.54, 9.48, 10.78, 9.02, 8.83, 8.85, 12.39, 10.79, 7.69, 0.0, -13.86, -13.67, -12.58, -12.22, -11.56, -10.6, -10.25, -10.05, -10.7, -11.18, -10.73, -9.83, -9.97, -10.84, -10.84, -11.03, -10.18, -10.18, -9.75, -9.2, -9.2, -7.27, -4.6, -4.6, -0.0, -0.0, 4.6, 9.2, 11.18, 12.07, 11.62, 11.62, -8.22, -7.9, -5.46, -5.9, -5.63, -2.97, 10.28, 8.38, 12.27, 17.53, 20.12, 23.25, 24.59, 16.99, -11.06, -0.0, 13.76, 15.77, 15.59, 16.66, 17.43, 11.38, 0.0, 0.0, 2.63, 4.24, 6.43, 8.59, 7.79, 10.12, 12.33, 10.8, 9.08, 11.88, 12.27, 11.88, 11.88, 7.54, 7.54, 7.54, 7.54, 7.74, 7.74, 8.25, 8.25, 8.74, 8.78, 8.83, 8.6, 8.64, 9.09, 8.81, 8.58, 8.58, 8.22, 7.38, 7.93, 10.12, 11.09, 10.37, 8.51, 7.78, 7.54, 8.1, 4.71, 0.0, -9.17, -12.52, -12.39, -11.78, -11.64, -11.33, -10.49, -10.49, -10.62, -10.7, -10.25, -10.56, -10.52, -10.91, -10.84, -11.02, -11.62, -9.75, -9.75, -9.75, -8.8, -6.95, -7.27, -4.8, -5.0, -0.0, 3.11, 7.9, 10.73, 10.73, 11.62, -11.18, -9.6, -7.59, -5.95, -5.7, -4.6, -3.25, 7.9, 12.07, 13.33, 16.12, 19.15, 23.71, 26.34, 20.85, 14.36, 8.28, 10.05, 15.69, 16.76, 15.65, 16.22, 12.65, 0.0, 0.0, 2.2, 4.24, 5.8, 6.43, 4.93, 6.0, 9.48, 9.96, 9.17, 8.66, 10.75, 11.52, 11.52, 7.54, 7.54, 7.54, 7.54, 7.54, 7.54, 8.25, 8.25, 8.74, 9.01, 8.56, 8.6, 8.64, 8.81, 9.35, 9.48, 8.85, 7.95, 6.5, 7.03, 8.72, 10.06, 9.95, 9.49, 8.57, 7.93, 6.2, 2.81, 0.0, -5.98, -11.4, -11.62, -11.62, -11.57, -11.46, -11.05, -11.05, -10.6, -10.58, -11.02, -10.78, -10.7, -10.6, -11.3, -11.03, -11.45, -9.33, -9.75, -9.75, -9.75, -9.33, -7.27, -7.59, -5.0, -0.0, -0.0, 3.53, 5.0, 11.62, 0.0, -11.18, -7.9, -7.59, -7.9, -7.27, -7.59, -4.8, 5.4, 10.37, 10.52, 12.22, 16.17, 22.48, 25.03, 19.08, 12.9, 8.41, 9.92, 9.17, 10.75, 13.99, 15.34, 13.19, 7.44, 0.0, 0.0, 0.0, 4.24, 9.48, 6.21, 3.44, 6.65, 10.12, 9.48, 6.2, 6.6, 9.22, 9.22, 7.35, 7.54, 7.54, 7.54, 7.54, 8.04, 8.04, 8.25, 8.74, 8.78, 8.56, 9.04, 8.79, 9.07, 9.75, 9.75, 9.21, 8.46, 7.8, 8.04, 8.33, 8.38, 8.38, 8.69, 8.94, 8.72, 7.36, 2.81, 0.0, -3.82, -9.66, -11.46, -11.62, -11.62, -11.57, -11.13, -11.58, -11.46, -11.0, -10.78, -10.7, -10.6, -10.21, -11.3, -10.27, -10.18, -10.18, -8.8, -9.2, -9.75, -9.75, -10.18, -7.59, -7.9, -3.39, -0.0, -2.82, -3.04, -11.62, -7.59, -10.28, -5.95, -5.0, -6.2, -10.0, -7.9, -8.22, -0.0, 4.1, 3.58, 4.95, 14.22, 20.86, 23.9, 4.4, 4.65, 6.9, 7.99, 6.64, 5.5, 8.05, 14.79, 16.09, 15.2, 14.3, 13.41, 13.41, 0.0, 10.43, 8.53, 6.7, 5.28, 7.93, 8.94, 6.4, 4.52, 5.48, 5.48, 7.84, 7.84, 7.84, 8.04, 8.04, 8.04, 8.04, 8.04, 8.52, 8.78, 9.0, 8.77, 9.04, 9.07, 9.47, 9.48, 9.48, 9.12, 9.12, 9.12, 9.02, 8.38, 7.44, 7.19, 7.73, 8.2, 6.98, 3.98, 0.0, -3.44, -7.24, -10.4, -11.4, -11.62, -11.62, -11.57, -11.57, -11.44, -11.4, -11.13, -11.03, -10.62, -10.4, -10.4, -10.09, -10.0, -8.93, -6.64, -6.64, -9.2, -9.75, -10.18, -8.93, -7.9, -5.95, -4.8, -4.15, -4.81, -0.0, 9.39, 9.39, -0.0, -0.0, -0.0, -5.0, -3.53, -0.0, -0.0, -0.0, -0.0, -0.0, 17.88, 25.02, -13.86, 0.0, 1.68, 4.81, 5.79, 5.96, 3.47, 1.96, 0.0, 11.06, 11.06, 10.43, 9.8, 13.86, 6.4, 10.75, 12.16, 9.17, 7.44, 8.94, 10.12, 6.4, 2.81, 2.81, 2.81, 7.84, 7.84, 7.84, 7.84, 8.04, 8.04, 8.04, 8.04, 8.52, 8.52, 9.0, 8.77, 9.04, 9.45, 9.47, 9.48, 9.21, 9.12, 8.83, 9.77, 9.79, 9.06, 7.99, 6.76, 6.76, 7.6, 6.65, 5.73, 1.48, -1.61, -4.65, -8.53, -10.4, -10.96, -11.18, -11.18, -11.11, -10.96, -11.35, -11.03, -10.88, -10.88, -10.09, -10.09, -9.46, -9.3, -10.41, -7.9, -7.59, -7.9, -10.4, -10.6, -10.18, -8.93, -7.27, -7.27, -6.17, -7.24, -4.1, 8.22, 8.0, 5.21, -0.0, -0.0, -0.0, -0.0, -0.0, -0.0, -0.0, -0.0, 0.0, 16.06, 23.19, -28.16, -16.54, 0.0, 3.68, 4.1, 5.48, 4.81, 0.0, 0.0, -14.75, -0.0, 10.43, 14.75, 14.75, 13.19, 13.59, 16.09, 11.09, 9.48, 9.8, 9.8, 4.52, 0.0, -4.38, -4.38, 7.84, 7.84, 7.84, 7.84, 7.84, 7.84, 8.04, 8.04, 8.52, 8.52, 9.0, 8.77, 8.77, 9.45, 9.45, 9.47, 9.48, 8.83, 9.21, 9.48, 10.13, 9.42, 8.96, 7.99, 7.29, 6.57, 6.9, 6.0, 2.63, 0.0, -2.13, -5.8, -6.94, -9.67, -10.96, -10.73, -11.18, -11.09, -10.84, -10.88, -10.68, -10.68, -9.3, -9.3, -8.59, -8.24, -9.67, -7.59, -5.06, -5.06, -5.52, -8.85, -8.93, -8.93, -8.55, -7.27, -8.23, -7.87, -6.45, 3.96, 7.9, 6.64, -0.0, -0.0, -0.0, -0.0, -0.0, -0.0, -0.0, 8.22, 6.9, 12.52, 21.06, 27.72, 27.72, 20.56, 8.0, 5.81, 5.63, 5.28, 3.81, 2.72, 0.0, -13.41, 14.75, 14.75, 14.75, 14.75, 15.2, -0.0, 5.37, 13.99, 10.12, 10.43, 0.0, -9.8, -13.44, -13.44, 7.63, 7.63, 7.63, 7.84, 7.84, 7.84, 7.84, 8.3, 8.52, 8.52, 9.0, 9.0, 9.45, 9.45, 9.45, 9.47, 9.48, 9.48, 9.48, 9.84, 10.13, 9.77, 9.33, 8.85, 7.85, 7.11, 6.67, 5.8, 4.43, 1.61, 0.0, 0.0, -3.04, -3.82, -8.22, -10.84, -10.73, -10.62, -10.75, -10.27, -10.0, -10.4, -8.73, -8.73, -8.38, -7.59, -8.22, -7.27, -5.06, -3.11, -3.53, -4.15, -6.94, -8.53, -8.94, -8.58, -9.2, -8.8, -8.55, -5.2, 3.82, 5.4, 2.28, -0.0, -0.0, -0.0, -0.0, -0.0, -0.0, 12.52, 6.7, 12.27, 16.39, 24.14, 27.17, 25.02, 21.61, 14.3, 4.32, 5.98, 7.44, 7.13, 0.0, -13.15, -13.57, 15.65, 15.2, -0.0, -0.0, -0.0, -0.0, 14.79, 10.75, 7.0, 0.0, -13.57, -13.86, -13.86, 7.63, 7.63, 7.63, 7.84, 7.84, 7.84, 7.84, 8.3, 8.3, 8.3, 9.0, 9.42, 9.45, 9.45, 9.45, 9.45, 9.47, 9.48, 9.48, 9.84, 10.13, 9.49, 9.42, 9.23, 8.85, 7.69, 6.9, 6.43, 5.8, 4.1, 1.83, 3.96, 2.45, 0.0, 0.0, 0.0, -5.2, -11.18, -10.18, -9.2, -7.9, -6.97, -5.2, -6.44, -6.17, -6.71, -5.0, -4.6, -4.4, -3.65, -1.76, -1.58, -3.25, -6.58, -8.94, -9.6, -9.6, -9.97, -9.11, -9.97, -3.82, -0.0, 2.71, -0.0, -0.0, -0.0, -0.0, -0.0, 12.96, 9.17, 7.19, 11.16, 12.9, 16.39, 20.05, 25.87, 23.72, 19.4, 3.65, 3.65, 7.26, 8.1, 0.0, -12.04, -13.59, -13.19, -0.0, -0.0, -0.0, -0.0, -0.0, 14.79, 17.43, 0.0, 0.0, -14.3, -14.3, -14.3, 7.63, 7.63, 7.63, 7.84, 7.84, 7.84, 8.3, 8.3, 8.3, 8.3, 9.0, 9.42, 9.7, 9.45, 9.45, 9.45, 9.73, 9.47, 10.13, 10.13, 10.13, 9.49, 9.42, 9.06, 9.3, 8.46, 7.69, 7.79, 7.12, 7.36, 6.44, 5.4, 5.4, 4.48, 2.37, 2.82, 0.0, 0.0, -11.18, -4.8, -3.53, -2.82, -2.71, -0.0, -0.0, -0.0, -0.0, -2.49, -2.39, -2.02, -1.84, -0.0, -0.0, -2.82, -6.87, -9.67, -10.0, -10.41, -10.08, -9.55, -9.3, -3.53, -0.0, -0.0, -0.0, -0.0, -0.0, 12.52, 0.0, 5.8, 11.9, 12.79, 11.37, 11.09, 13.2, 18.66, 22.69, 16.48, 2.72, 3.82, 6.98, 8.22, 9.48, -11.87, -12.14, -13.15, -10.43, -3.79, -0.0, -0.0, 14.75, 15.65, 16.54, 7.6, 0.0, 0.0, 0.0, 0.0, 7.88, 7.88, 7.63, 7.63, 7.84, 8.3, 8.3, 8.3, 8.3, 8.3, 9.0, 9.42, 9.7, 9.45, 9.45, 9.45, 9.73, 10.11, 9.84, 10.13, 10.13, 9.77, 9.42, 8.75, 8.69, 8.74, 8.38, 8.29, 7.63, 7.51, 7.54, 7.41, 7.02, 6.7, 5.98, 6.97, 6.45, 10.0, 11.18, -0.0, -0.0, -0.0, -0.0, -0.0, -0.0, 1.69, 1.84, 1.93, -0.0, -0.0, -0.0, -0.0, -0.0, -0.0, -1.52, -5.95, -8.53, -10.4, -9.96, -10.0, -10.0, -9.3, -8.53, -5.6, -2.93, -0.0, -0.0, -0.0, -5.2, 0.0, 9.8, 14.64, 13.37, 10.99, 8.58, 11.0, 12.15, 3.16, 0.0, 6.31, 8.53, 7.74, 10.41, 12.07, -9.17, -9.48, -9.48, -10.43, -6.8, -0.0, 14.75, 15.2, 15.65, 15.27, 7.6, 5.37, 7.4, 7.4, 7.88, 7.88, 7.88, 7.63, 8.3, 8.3, 8.3, 8.3, 8.3, 8.3, 8.3, 9.42, 9.7, 9.45, 9.45, 9.73, 9.73, 10.11, 10.11, 10.47, 10.42, 9.77, 9.79, 9.44, 9.09, 9.13, 8.78, 8.44, 8.09, 8.46, 8.42, 8.53, 8.53, 8.22, 8.93, 9.08, 9.3, 10.0, 11.18, 10.73, 7.59, 3.39, 2.71, 2.1, 1.84, 2.82, 6.2, 5.29, 3.82, 4.15, 3.53, 3.25, 1.45, 1.45, 1.52, -1.52, -5.72, -9.48, -11.03, -10.6, -10.52, -11.18, -12.07, -11.03, -5.4, -2.45, -0.0, -0.0, 11.18, 0.0, 4.8, 13.15, 16.09, 16.84, 13.91, 14.12, 13.07, 3.42, 0.0, 9.0, 14.86, 9.42, 9.46, 12.27, 11.28, 10.12, -0.0, -13.57, -14.75, -13.19, -10.43, 15.65, 15.65, 15.18, 13.39, 9.67, 9.67, 9.67, 7.88, 7.88, 7.88, 8.33, 8.08, 8.3, 8.3, 8.3, 8.33, 8.33, 8.56, 9.0, 9.7, 10.1, 9.73, 9.47, 9.47, 10.11, 10.11, 10.76, 10.13, 10.13, 9.79, 9.44, 9.46, 8.83, 8.85, 8.52, 8.85, 9.23, 9.23, 9.26, 9.42, 9.53, 9.3, 9.7, 10.27, 10.6, 10.52, 10.73, 10.41, 8.93, 6.44, 3.98, 3.39, 3.82, 6.7, 5.95, 5.7, 5.0, 5.52, 4.6, 3.25, 1.52, 2.95, 1.52, -1.45, -6.76, -9.38, -11.02, -11.18, -11.28, -12.07, -9.67, -8.53, -6.97, -5.2, -0.0, 10.8, 9.83, 8.49, 11.18, 15.43, 22.62, 20.98, 16.38, 13.76, 12.65, 13.76, 13.91, 15.49, 13.59, 11.6, 13.41, 13.72, 13.75, 13.88, -0.0, -13.57, -12.27, -12.27, -6.6, 10.75, 14.84, 15.18, 14.39, 14.13, 14.13, 7.66, 7.66, 7.88, 8.33, 8.33, 8.33, 8.33, 8.33, 8.33, 8.33, 8.33, 9.0, 9.42, 10.1, 10.11, 9.47, 9.84, 9.84, 10.11, 10.47, 10.13, 9.84, 9.5, 9.5, 9.17, 9.17, 8.85, 8.21, 9.69, 9.21, 9.92, 9.62, 10.12, 10.18, 10.35, 10.62, 10.46, 10.84, 10.62, 10.73, 10.08, 9.96, 8.58, 7.59, 6.7, 6.98, 7.9, 7.59, 7.59, 7.9, 6.7, 6.42, 5.52, 4.8, 4.6, 2.82, 1.58, -2.71, -6.98, -9.75, -12.07, -11.28, -11.03, -7.9, -8.22, -7.9, -7.27, -8.22, 12.52, 12.07, 9.75, 10.28, 9.8, 18.78, 29.02, 19.53, 10.91, 7.9, 13.44, 17.64, 18.08, 17.53, 15.65, 14.22, 14.51, 15.12, 15.55, 14.75, -0.0, -7.69, -9.8, -7.93, -6.6, 6.8, 15.2, 15.65, 16.09, 16.09, 7.66, 7.66, 8.11, 8.33, 8.33, 8.33, 8.33, 8.33, 8.33, 8.33, 8.77, 8.77, 9.42, 9.7, 10.11, 9.84, 10.13, 10.13, 10.13, 10.13, 10.13, 10.13, 9.5, 9.5, 9.5, 9.17, 8.85, 8.85, 8.87, 9.69, 8.93, 9.66, 10.04, 10.43, 10.6, 10.92, 11.13, 10.91, 11.09, 10.73, 10.18, 10.32, 9.6, 8.93, 9.3, 8.24, 8.24, 7.9, 8.24, 8.24, 7.27, 7.27, 6.98, 6.7, 4.6, 4.8, 4.23, -0.0, -2.49, -7.59, -10.32, -10.73, -8.22, -5.95, -6.71, -7.9, -8.58, -8.55, -8.22, 9.17, 5.4, 11.18, 0.0, 13.1, 27.78, 23.65, 14.47, 11.62, 12.72, 14.11, 15.99, 16.86, 16.37, 16.41, 16.49, 16.54, 16.09, 15.2, 13.57, -0.0, -7.19, -7.44, -4.38, -0.0, 7.93, 13.59, 12.65, 12.65, 7.66, 7.66, 8.11, 8.11, 8.33, 8.33, 8.33, 8.33, 8.77, 8.77, 8.77, 8.77, 9.04, 9.7, 10.11, 9.84, 10.13, 9.84, 10.13, 10.13, 10.13, 10.13, 9.5, 9.5, 9.5, 9.48, 9.17, 9.15, 9.46, 9.49, 9.21, 9.3, 9.67, 10.43, 10.8, 10.92, 11.21, 11.4, 11.12, 10.73, 10.73, 9.97, 10.05, 9.32, 9.32, 8.37, 8.37, 8.37, 8.73, 9.32, 8.93, 8.73, 7.59, 6.42, 6.42, 4.6, 4.6, 2.7, -0.0, -4.23, -10.41, -7.9, -7.9, -6.2, -7.27, -7.59, -8.58, -9.6, -8.22, -8.85, -0.0, 12.52, 11.2, 12.0, 21.19, 25.61, 18.78, 14.38, 12.11, 13.57, 15.68, 16.48, 16.54, 16.99, 16.54, 16.09, 16.09, 15.14, 12.79, 4.24, -0.0, -3.96, -5.6, -0.0, 6.0, 10.43, 8.43, 8.43, 7.92, 7.92, 8.37, 8.11, 8.11, 8.33, 8.33, 8.77, 8.77, 8.77, 9.04, 9.04, 9.04, 9.45, 10.11, 10.13, 10.13, 10.13, 10.13, 10.43, 10.13, 10.13, 9.8, 9.8, 10.12, 9.48, 9.46, 9.76, 10.06, 9.77, 9.82, 9.56, 9.9, 10.04, 10.4, 11.03, 11.28, 11.44, 11.13, 11.18, 10.73, 10.04, 9.75, 9.6, 9.2, 9.2, 8.8, 9.2, 8.93, 9.32, 8.93, 8.73, 8.38, 7.27, 6.7, 6.42, 5.06, 3.11, 3.11, -2.82, -5.72, -8.22, -7.59, -6.2, -6.2, -9.3, -8.93, -9.3, -9.3, -8.53, -5.6, -0.0, 14.3, 14.95, 18.42, 21.13, 20.42, 17.16, 15.56, 17.07, 17.31, 16.99, 15.39, 14.75, 15.65, 14.68, 14.47, 13.99, 11.5, 7.51, 3.96, -0.0, -0.0, -0.0, -0.0, -0.0, 4.66, 4.66, 7.7, 7.7, 8.37, 8.37, 8.37, 8.37, 8.77, 8.77, 8.77, 9.04, 9.04, 9.04, 9.04, 9.19, 9.73, 10.11, 10.47, 10.47, 10.47, 10.43, 10.13, 10.44, 9.8, 10.11, 10.12, 10.09, 10.06, 9.66, 9.94, 10.01, 10.41, 10.15, 10.09, 9.84, 10.15, 10.68, 10.89, 11.02, 11.14, 11.18, 10.73, 10.52, 9.75, 9.33, 9.21, 9.21, 9.21, 9.63, 9.63, 9.86, 9.6, 9.2, 8.03, 7.59, 7.27, 6.95, 5.06, 5.06, 3.65, -0.0, -3.61, -6.32, -8.93, -8.55, -8.55, -7.9, -8.55, -7.59, -9.3, -9.3, -5.8, -0.0, 13.99, 16.82, 19.22, 17.4, 17.43, 19.33, 21.17, 19.2, 19.22, 16.05, 12.83, 12.96, 13.01, 12.04, 11.12, 10.73, 9.77, 11.12, 9.17, 5.8, -0.0, -0.0, -0.0, -0.0, -0.0, -0.0, 8.14, 8.14, 8.37, 8.37, 8.37, 8.79, 9.04, 9.04, 9.04, 9.04, 8.79, 8.79, 9.07, 9.07, 9.47, 10.13, 10.77, 10.47, 10.76, 10.45, 10.44, 10.44, 10.11, 10.43, 10.12, 10.39, 10.35, 10.01, 9.94, 10.13, 10.24, 10.52, 10.65, 10.53, 10.27, 10.52, 10.68, 11.05, 11.14, 11.18, 10.73, 10.68, 10.04, 10.75, 8.79, 9.54, 9.97, 9.97, 9.89, 9.86, 9.6, 9.2, 8.82, 7.59, 6.95, 6.95, 6.95, 4.83, 5.06, 1.62, -1.22, -3.7, -8.55, -8.18, -5.95, -6.2, -5.46, -4.6, -5.95, -5.95, -6.45, -4.1, 4.95, 17.81, 20.97, 17.72, 13.44, 16.33, 21.82, 21.68, 18.52, 15.6, 13.41, 12.07, 10.8, 11.12, 11.16, 10.79, 10.79, 11.12, 11.12, 11.16, -0.0, 13.41, 12.96, 12.96, -0.0, -0.0, 8.14, 8.14, 8.14, 8.37, 8.79, 8.79, 8.79, 8.79, 8.79, 8.79, 8.79, 9.07, 8.81, 8.81, 9.2, 9.48, 10.13, 10.76, 10.76, 10.75, 10.44, 10.43, 10.11, 10.43, 10.44, 10.11, 10.7, 10.65, 10.59, 10.13, 10.24, 10.52, 10.8, 10.65, 10.79, 10.6, 10.75, 10.93, 11.05, 10.69, 10.73, 10.73, 10.23, 11.51, 9.6, 9.6, 10.2, 10.2, 9.89, 10.18, 9.75, 8.82, 8.82, 8.23, 6.95, 6.64, 6.64, 4.83, 4.83, 3.65, -0.0, -2.28, -5.95, -6.64, -5.46, -5.95, -4.8, -5.7, -3.39, -3.53, -5.0, -5.8, 10.43, 17.36, 23.99, 22.75, 14.47, 12.82, 17.38, 17.99, 16.21, 14.99, 15.2, 14.6, 11.88, 10.47, 12.03, 12.03, 11.64, 11.64, 11.99, 12.45, 11.99, 13.41, 13.41, 12.96, 13.41, -0.0, 8.14, 8.14, 8.14, 8.14, 8.79, 8.79, 8.79, 8.79, 8.79, 8.79, 8.81, 8.81, 8.81, 9.09, 9.48, 9.48, 10.13, 10.47, 10.45, 10.75, 11.05, 10.43, 10.74, 10.12, 10.44, 10.43, 10.7, 10.65, 10.59, 10.51, 10.24, 10.52, 10.8, 11.06, 10.79, 11.03, 10.75, 10.93, 11.05, 10.69, 10.69, 10.28, 10.28, 9.77, 11.51, 9.64, 10.66, 10.65, 10.18, 9.75, 9.33, 8.43, 8.05, 8.05, 6.64, 6.64, 6.32, 4.6, 4.83, 4.83, -0.0, -2.28, -2.99, -5.46, -5.7, -7.27, -5.46, -5.7, -3.39, -3.53, -5.0, -11.62, 13.86, 15.65, 19.29, 25.11, 23.07, 16.01, 12.79, 11.69, 11.72, 12.89, 13.41, 12.89, 11.26, 12.03, 13.07, 13.48, 13.07, 13.15, 13.15, 13.32, 13.44, 13.86, -13.41, -11.99, -12.96, 13.41, 8.14, 8.14, 8.14, 8.4, 8.81, 8.81, 9.07, 9.07, 9.07, 8.81, 8.81, 8.81, 8.81, 8.83, 8.83, 9.49, 9.49, 9.84, 10.75, 10.43, 10.72, 10.74, 10.42, 10.44, 10.11, 10.43, 10.65, 10.65, 10.59, 10.88, 10.61, 10.13, 10.13, 10.4, 10.53, 10.79, 10.95, 10.75, 10.89, 10.6, 10.69, 10.24, 10.28, 10.28, 9.83, 11.18, 10.22, 10.2, 9.74, 9.46, 8.91, 8.91, 8.4, 7.67, 7.67, 6.98, 6.63, 5.59, 5.59, 4.83, 1.54, -1.16, -4.8, -5.46, -5.46, -5.7, -5.46, -7.59, -5.7, -3.53, -5.2, -11.62, 0.0, 9.8, 15.65, 19.25, 28.63, 26.45, 13.86, 11.6, 12.27, 14.75, 13.15, 12.72, 12.45, 13.27, 13.96, 14.4, 14.47, 14.07, 14.07, 14.23, 13.86, 13.86, -13.41, -12.58, -12.58, -12.58, 8.16, 8.16, 8.4, 8.4, 8.81, 8.81, 8.81, 8.81, 8.81, 8.81, 8.81, 8.81, 8.83, 8.83, 8.83, 9.49, 9.22, 10.13, 10.13, 10.72, 10.72, 10.69, 10.42, 10.39, 10.06, 10.09, 10.3, 10.3, 10.59, 10.51, 10.61, 10.52, 10.13, 10.26, 10.53, 10.79, 10.95, 11.18, 10.89, 10.89, 10.58, 10.68, 10.24, 10.23, 10.73, 10.73, 10.23, 9.77, 9.32, 9.11, 9.03, 8.6, 8.48, 8.0, 7.28, 7.28, 6.28, 6.01, 6.32, 6.32, 3.49, -1.11, -2.98, -5.46, -5.46, -6.95, -7.27, -5.7, -5.7, -6.2, -8.22, -11.18, 0.0, 0.0, 6.6, 14.94, 21.9, 31.42, 27.17, 17.59, 16.79, 15.16, 15.99, 14.84, 13.11, 13.63, 13.77, 14.3, 14.75, 14.3, 14.3, 14.3, 13.86, 13.41, -12.96, -12.96, -12.96, -12.96, 8.16, 8.16, 8.16, 8.4, 8.81, 8.81, 8.81, 8.81, 8.81, 8.81, 9.09, 8.83, 8.83, 8.83, 8.85, 9.22, 9.5, 9.5, 9.84, 10.43, 10.72, 10.69, 10.36, 10.06, 10.06, 10.01, 10.01, 9.94, 10.23, 10.31, 10.24, 10.52, 10.13, 10.26, 10.53, 10.79, 10.95, 11.18, 11.11, 10.89, 11.05, 10.58, 10.56, 10.68, 10.68, 11.18, 10.73, 9.83, 9.33, 8.87, 8.87, 8.85, 8.6, 8.48, 8.06, 7.28, 6.28, 6.28, 6.63, 6.98, 5.36, -0.0, -2.83, -4.8, -6.95, -6.95, -7.27, -5.95, -5.7, -7.9, -7.9, -10.73, 0.0, 4.1, 6.0, 10.75, 16.96, 23.69, 29.92, 24.06, 20.09, 19.71, 17.59, 17.3, 14.36, 13.63, 14.3, 14.3, 14.16, 14.22, 13.77, 13.75, 13.86, -13.41, -12.96, -12.96, -12.96, -12.96, 7.73, 7.73, 8.16, 8.4, 8.81, 8.81, 8.81, 9.09, 8.83, 8.83, 8.83, 8.83, 8.85, 8.85, 8.85, 9.5, 9.21, 9.21, 9.5, 10.43, 10.72, 10.4, 10.69, 10.36, 10.06, 10.01, 10.01, 9.94, 10.23, 9.95, 10.24, 10.24, 10.13, 10.4, 10.53, 10.79, 11.03, 10.95, 11.18, 10.93, 10.89, 10.6, 10.58, 10.56, 10.68, 10.68, 10.73, 10.28, 9.83, 9.83, 9.32, 9.32, 8.85, 8.6, 8.48, 7.6, 7.28, 6.28, 6.28, 6.63, 6.01, -0.0, -1.94, -3.8, -5.95, -6.95, -8.18, -6.64, -8.23, -8.93, -8.22, -10.28, 0.0, 5.6, 9.48, 11.9, 15.93, 18.26, 22.12, 22.99, 22.73, 23.28, 23.39, 17.81, 16.41, 14.42, 14.55, 14.55, 13.99, 13.23, 14.3, 12.52, -12.96, -12.96, -12.96, -12.52, -12.52, -12.52, 7.73, 7.73, 8.16, 8.16, 8.81, 8.83, 8.83, 8.83, 8.83, 8.83, 8.85, 8.85, 8.85, 8.85, 9.14, 9.21, 9.21, 9.21, 9.5, 10.13, 10.43, 10.4, 10.69, 10.36, 10.3, 10.01, 10.01, 9.94, 10.23, 10.13, 10.24, 10.24, 10.13, 10.4, 10.53, 10.79, 10.79, 11.03, 11.18, 11.18, 10.93, 10.89, 11.05, 10.58, 10.58, 10.68, 10.68, 10.28, 10.28, 9.83, 9.83, 9.39, 9.29, 8.85, 8.48, 8.06, 7.6, 7.2, 6.9, 6.9, 6.79, 1.67, -1.94, -2.97, -4.0, -7.27, -6.95, -7.44, -8.8, -9.2, -9.75, -10.73, 11.62, 0.0, 11.99, 13.86, 15.2, 15.99, 16.96, 15.55, 19.35, 26.08, 26.3, 21.52, 18.49, 15.11, 16.22, 16.09, 12.79, 13.86, -0.0, -0.0, 12.52, -8.85, -12.52, -12.07, -12.07, -12.07, 7.73, 7.73, 8.16, 8.16, 8.43, 8.83, 8.57, 8.85, 8.85, 8.85, 8.85, 8.85, 8.85, 8.86, 8.86, 9.21, 9.5, 9.5, 9.84, 9.84, 9.82, 10.12, 10.09, 10.09, 10.06, 10.01, 10.3, 9.94, 10.23, 10.13, 10.24, 10.52, 10.13, 10.4, 10.65, 10.88, 10.79, 11.03, 11.03, 10.8, 10.75, 10.93, 10.89, 11.05, 10.58, 10.58, 10.68, 10.23, 10.28, 10.28, 9.83, 9.39, 9.39, 8.85, 8.06, 8.06, 8.06, 7.2, 7.2, 7.2, 6.9, 3.15, -1.05, -2.83, -3.52, -6.95, -6.64, -6.64, -8.18, -9.33, -9.75, -11.18, -11.62, 12.52, 12.96, 9.48, 14.3, 14.61, 13.65, 11.7, 13.96, 22.91, 26.71, 23.34, 19.93, 16.39, 15.65, -14.75, -13.86, -9.17, -6.94, -6.94, -12.07, -12.07, -12.07, -12.07, -12.07, -12.07, 7.5, 7.5, 8.18, 8.18, 8.18, 8.57, 8.85, 8.85, 8.85, 8.85, 8.58, 8.86, 8.86, 9.21, 9.5, 9.5, 9.79, 10.13, 10.13, 9.84, 9.82, 9.5, 9.48, 9.77, 9.72, 10.01, 9.94, 10.23, 10.13, 10.13, 10.4, 10.13, 10.4, 10.4, 10.65, 10.88, 10.88, 10.6, 10.6, 10.8, 10.8, 10.75, 10.93, 10.89, 10.89, 10.58, 10.58, 10.24, 10.23, 10.22, 9.83, 9.83, 9.39, 8.94, 8.82, 8.38, 8.06, 7.63, 7.2, 7.2, 6.52, 3.6, -1.05, -3.63, -4.0, -5.7, -3.11, -6.64, -8.18, -9.33, -9.75, -10.18, -10.4, -8.53, -0.0, 9.48, 12.39, 10.12, 10.43, 10.18, 12.45, 17.71, 22.14, 21.74, 21.63, 16.37, -15.2, -12.96, -10.79, -8.85, -7.51, -8.53, -11.28, -11.18, -11.18, -10.73, -10.73, -10.73, 7.76, 7.76, 7.76, 8.18, 8.18, 8.85, 8.85, 8.85, 8.85, 8.58, 8.86, 8.86, 9.21, 9.5, 9.49, 9.84, 9.84, 9.84, 9.84, 9.5, 9.5, 9.19, 9.17, 9.46, 9.13, 9.42, 9.37, 9.66, 9.95, 9.95, 10.24, 10.13, 10.4, 10.4, 10.65, 10.65, 10.46, 10.46, 10.67, 10.6, 10.8, 10.8, 10.75, 10.93, 10.89, 10.89, 10.58, 10.56, 10.12, 10.23, 9.77, 9.83, 9.39, 8.94, 8.85, 8.38, 8.38, 7.63, 7.63, 7.63, 6.9, 5.37, -1.14, -3.45, -4.5, -6.32, -4.96, -2.97, -2.97, -5.46, -6.95, -8.55, -10.0, -8.53, -0.0, -0.0, 6.0, 4.24, 7.36, 9.44, 11.88, 13.06, 14.88, 18.39, 23.06, 19.2, -10.18, -7.27, -5.2, -5.6, -5.4, -8.22, -10.41, -10.28, -9.83, -9.39, -9.39, -9.39, 7.76, 7.53, 7.53, 7.93, 8.2, 8.2, 8.58, 8.58, 8.86, 8.86, 8.86, 9.5, 9.22, 9.49, 9.84, 10.13, 9.84, 9.5, 9.21, 9.5, 9.5, 9.48, 8.87, 8.85, 8.85, 8.82, 9.37, 9.66, 9.95, 9.95, 9.86, 10.13, 10.13, 10.0, 10.24, 10.24, 10.46, 10.46, 10.67, 10.6, 10.8, 10.8, 10.8, 10.75, 10.93, 10.89, 10.45, 10.41, 10.12, 10.12, 10.23, 9.77, 9.39, 8.94, 8.94, 8.41, 8.38, 7.94, 7.63, 7.63, 7.63, 6.08, -0.0, -3.27, -4.26, -6.32, -4.96, -2.28, -0.0, -0.0, -0.0, -0.0, -6.95, -10.0, -8.53, -0.0, -0.0, -0.0, 4.38, 8.85, 10.43, 10.43, 11.06, 15.84, 25.87, 17.81, -6.4, -3.39, -0.0, -5.0, -5.2, -6.45, -10.6, -10.73, -10.28, -9.83, -9.83, -9.83, 7.53, 7.53, 7.53, 7.8, 8.2, 8.2, 8.2, 8.86, 8.86, 8.86, 9.22, 9.22, 9.49, 10.13, 10.13, 9.84, 9.5, 9.21, 9.21, 9.5, 9.19, 9.48, 8.87, 8.85, 9.15, 8.82, 9.12, 9.42, 9.42, 9.37, 9.67, 9.67, 9.58, 9.86, 9.86, 10.13, 10.13, 10.38, 10.38, 10.6, 10.6, 10.6, 10.8, 10.8, 10.75, 10.93, 10.45, 10.45, 10.41, 10.12, 10.08, 9.79, 9.77, 8.94, 8.94, 8.49, 8.41, 7.94, 7.94, 7.63, 7.63, 6.08, -0.0, -2.67, -4.56, -5.06, -6.64, -5.21, -2.97, -0.0, -0.0, 3.25, -0.0, -0.0, -10.0, -8.22, -0.0, -0.0, 4.24, 7.69, 11.44, 10.12, 11.17, 16.27, 27.27, 14.54, -3.16, -0.0, 10.73, -10.73, -10.6, -7.9, -11.62, -11.18, -10.73, -9.83, -9.83, -9.83, 6.88, 6.88, 7.55, 7.55, 7.95, 8.22, 8.49, 8.86, 8.58, 9.22, 9.49, 9.49, 10.13, 9.84, 9.49, 9.5, 9.5, 9.21, 9.19, 9.19, 9.19, 9.17, 8.85, 8.85, 8.82, 8.82, 9.12, 9.08, 9.08, 9.37, 9.67, 9.3, 9.58, 9.58, 9.86, 10.13, 10.13, 10.38, 10.38, 10.38, 10.6, 10.6, 10.6, 10.8, 10.75, 10.75, 10.32, 10.45, 10.45, 9.97, 10.12, 9.64, 9.77, 8.94, 8.94, 8.49, 8.49, 8.38, 7.94, 7.63, 7.21, 6.52, 3.4, -2.09, -4.95, -5.77, -8.4, -7.81, -6.95, -4.2, -0.0, -0.0, 4.6, -0.0, -7.27, -7.9, -0.0, 5.6, 9.17, 9.17, 9.48, 9.8, 12.27, 27.27, 27.72, 4.77, -3.24, -0.0, -8.22, -9.2, -10.96, -10.0, -8.22, -10.4, -10.73, -10.28, -10.28, -10.28, 7.13, 7.13, 7.55, 7.55, 7.55, 8.22, 8.2, 8.58, 8.85, 9.49, 9.49, 9.49, 9.49, 9.5, 9.21, 9.21, 9.21, 9.19, 9.19, 9.19, 9.48, 9.17, 8.85, 8.82, 8.82, 8.78, 8.52, 8.82, 8.82, 9.14, 9.01, 9.3, 9.09, 9.4, 9.7, 10.0, 10.0, 10.27, 10.27, 10.27, 10.52, 10.52, 10.52, 10.52, 10.52, 10.75, 10.75, 10.25, 10.45, 9.97, 9.97, 9.68, 9.33, 8.89, 8.94, 8.49, 8.49, 8.49, 7.94, 7.63, 6.8, 6.52, 4.56, -0.0, -4.87, -5.84, -6.6, -7.21, -9.97, -9.2, -7.27, 10.28, 10.28, -0.0, -0.0, -0.0, -0.0, 5.4, 8.85, 8.85, 9.17, 9.8, 17.68, 25.86, 25.79, -0.0, -2.98, -0.0, -6.7, -11.4, -10.6, -6.2, 0.0, -5.0, -10.18, -10.28, -10.28, -10.28, 6.9, 6.9, 7.13, 7.55, 7.55, 8.2, 8.58, 8.85, 9.22, 9.22, 9.22, 9.5, 9.21, 9.21, 8.87, 8.87, 9.19, 9.19, 9.19, 9.19, 9.17, 8.87, 8.85, 8.82, 8.5, 8.78, 8.52, 8.82, 8.49, 8.79, 8.79, 9.09, 9.09, 9.4, 9.7, 9.7, 10.0, 10.0, 10.27, 10.27, 10.52, 10.52, 10.52, 10.52, 10.52, 10.52, 10.75, 10.25, 10.25, 10.45, 9.97, 9.92, 9.21, 9.33, 8.87, 8.49, 8.49, 8.49, 7.94, 7.94, 7.47, 6.52, 6.08, 1.84, -2.99, -5.69, -6.99, -7.74, -9.97, -10.73, -10.73, -10.73, -10.73, -10.28, -6.95, -4.4, -0.0, -0.0, 8.85, 11.2, 5.6, 9.48, 17.16, 22.28, 24.39, -0.0, -3.36, -0.0, -4.8, -11.18, -10.0, -5.2, 0.0, 0.0, -10.0, -9.83, -9.83, -9.83, 6.9, 6.9, 7.13, 7.55, 7.8, 8.2, 8.58, 8.58, 9.14, 9.21, 9.21, 8.87, 8.87, 8.87, 8.87, 9.19, 9.19, 9.19, 9.19, 9.17, 9.17, 8.85, 8.85, 8.82, 8.78, 8.78, 8.49, 8.49, 8.49, 8.79, 8.79, 9.09, 9.09, 9.4, 9.7, 9.7, 10.0, 10.0, 10.27, 10.27, 10.27, 10.52, 10.1, 10.1, 10.1, 10.01, 10.01, 10.25, 10.25, 10.25, 9.97, 9.97, 9.21, 9.21, 8.89, 8.87, 8.49, 8.49, 8.05, 7.94, 7.94, 7.47, 7.2, 5.69, -0.0, -4.83, -7.07, -7.81, -8.41, -10.73, -10.73, -10.73, -10.73, -7.27, -0.0, -0.0, -0.0, 11.18, 11.62, 12.07, 12.52, 13.57, 17.53, 20.12, 28.32, 24.59, -5.09, -2.82, -2.71, -10.6, -9.3, -8.22, -3.68, 0.0, 0.0, -10.28, -10.28, -10.28, 6.9, 6.9, 7.13, 7.55, 7.55, 8.22, 8.22, 8.59, 8.87, 8.87, 8.59, 8.87, 8.87, 8.87, 9.19, 9.19, 9.19, 9.48, 9.17, 9.17, 8.85, 8.85, 8.53, 8.5, 8.78, 8.45, 8.73, 8.49, 8.49, 8.79, 8.79, 9.09, 9.4, 9.02, 9.32, 9.14, 9.84, 9.84, 10.15, 10.15, 10.27, 9.86, 10.1, 10.1, 10.01, 10.01, 10.01, 10.25, 10.25, 10.25, 9.75, 9.54, 9.06, 9.21, 8.77, 8.89, 8.49, 8.49, 8.49, 8.05, 7.94, 7.89, 7.47, 6.7, 5.69, -0.0, -6.01, -7.6, -8.41, -10.28, -10.28, -10.73, -10.28, -6.95, -0.0, -0.0, -0.0, 10.28, 10.73, 11.62, 0.0, 12.39, 15.34, 19.22, 25.93, 27.18, 19.22, -3.69, -2.71, -5.0, -11.03, -9.3, -5.4, 0.0, 0.0, -7.9, -7.9, -7.9, 7.16, 7.16, 7.16, 7.57, 7.57, 7.96, 8.23, 8.23, 8.59, 8.87, 8.87, 8.87, 8.87, 8.87, 9.19, 9.19, 9.48, 9.17, 8.87, 8.85, 8.85, 8.53, 8.82, 8.5, 8.78, 8.45, 8.73, 8.49, 8.79, 8.44, 8.73, 8.73, 9.02, 9.02, 9.32, 9.32, 9.45, 9.84, 9.84, 10.15, 10.15, 9.74, 9.74, 10.01, 10.01, 10.01, 10.01, 10.18, 10.18, 10.18, 9.75, 9.54, 9.49, 9.24, 8.77, 8.89, 8.44, 8.49, 8.49, 8.49, 8.05, 7.94, 7.89, 8.24, 7.07, 3.8, -0.0, -7.44, -8.82, -10.28, -10.28, -10.28, -9.83, -6.64, 9.39, 9.39, 9.39, 9.39, 10.28, 0.0, 0.0, 6.0, 13.19, 16.76, 23.61, 26.89, 13.91, -11.06, -5.6, -0.0, 11.62, -8.22, -2.93, 0.0, 0.0, 0.0, 0.0, 0.0, 6.92, 6.92, 6.92, 6.92, 7.59, 7.59, 7.96, 8.24, 8.53, 8.87, 8.87, 8.87, 8.87, 9.19, 9.48, 9.17, 9.17, 8.87, 8.85, 8.85, 8.85, 8.82, 8.82, 8.5, 8.45, 8.45, 8.73, 8.49, 8.44, 8.44, 8.73, 8.73, 9.02, 9.02, 9.32, 9.32, 9.32, 9.45, 9.45, 9.45, 9.74, 9.74, 9.74, 9.74, 10.01, 10.01, 10.01, 10.18, 10.18, 10.18, 9.75, 9.54, 9.49, 9.06, 8.77, 8.77, 8.44, 8.43, 8.49, 8.49, 8.49, 8.49, 8.49, 8.33, 8.24, 8.06, 8.0, -0.0, -8.0, -8.67, -9.39, -11.18, -10.28, -9.39, -9.39, -9.39, 9.39, 9.83, 10.28, 11.62, 0.0, 6.0, 11.8, 15.2, 22.49, 27.62, 18.66, 0.0, 14.3, 13.41, 12.52, 8.53, 0.0, 0.0, 0.0, 0.0, 0.0, 0.0, 6.92, 6.92, 6.92, 7.19, 7.19, 7.59, 7.87, 8.24, 8.24, 8.58, 8.58, 8.87, 8.58, 8.87, 8.87, 8.87, 8.85, 8.85, 8.85, 8.85, 8.53, 8.82, 8.5, 8.5, 8.45, 8.73, 8.73, 8.49, 8.44, 8.44, 8.73, 8.73, 9.02, 9.02, 9.02, 9.32, 9.32, 9.14, 9.45, 9.45, 9.45, 9.74, 9.74, 9.74, 9.74, 10.01, 9.9, 9.9, 10.18, 10.18, 9.75, 9.54, 9.54, 9.06, 9.24, 8.77, 8.73, 8.44, 8.43, 8.49, 8.49, 8.49, 8.49, 8.49, 8.49, 8.24, 8.94, 8.0, -0.0, -8.0, -8.91, -11.18, -10.28, -10.73, -9.39, -9.83, -9.83, 9.83, 10.28, 10.73, 0.0, 4.1, 10.12, 14.38, 20.72, 27.65, 21.77, 15.61, 10.12, 9.8, 11.2, 11.2, 8.53, 5.6, 5.6, 8.53, 8.53, 8.53, 6.76, 6.76, 7.19, 6.94, 6.94, 7.22, 7.6, 8.24, 8.24, 8.58, 8.58, 8.87, 8.87, 8.87, 8.56, 8.85, 8.85, 8.85, 8.85, 8.53, 8.82, 8.82, 8.5, 8.78, 8.45, 8.73, 8.73, 8.49, 8.44, 8.44, 8.73, 8.73, 9.02, 9.02, 9.02, 9.32, 9.32, 9.14, 9.45, 9.45, 9.45, 9.45, 9.74, 9.74, 9.6, 9.9, 9.9, 9.9, 9.9, 9.75, 9.75, 9.54, 9.49, 9.06, 9.24, 8.77, 8.77, 8.89, 8.89, 8.43, 8.43, 8.49, 8.49, 8.49, 8.49, 8.49, 8.94, 8.94, 8.94, -0.0, -0.0, -8.4, -8.4, -11.62, -9.39, -9.83, -9.83, 9.83, 10.28, 10.73, 0.0, 7.19, 9.8, 13.56, 18.47, 25.03, 24.14, 18.78, 15.65, 14.75, 13.44, 12.72, 11.6, 11.2, 11.87, 11.87, 11.87, 11.87, 6.76, 6.76, 7.19, 6.94, 6.94, 7.22, 7.6, 8.24, 8.24, 8.58, 8.58, 8.87, 8.87, 8.87, 8.56, 8.85, 8.85, 8.85, 8.85, 8.53, 8.82, 8.82, 8.5, 8.78, 8.45, 8.73, 8.73, 8.49, 8.44, 8.44, 8.73, 8.73, 9.02, 9.02, 9.02, 9.32, 9.32, 9.14, 9.45, 9.45, 9.45, 9.45, 9.74, 9.74, 9.6, 9.9, 9.9, 9.9, 9.9, 9.75, 9.75, 9.54, 9.49, 9.06, 9.24, 8.77, 8.77, 8.89, 8.89, 8.43, 8.43, 8.49, 8.49, 8.49, 8.49, 8.49, 8.94, 8.94, 8.94, -0.0, -0.0, -8.4, -8.4, -11.62, -9.39, -9.83, 9.83, 9.83, 10.28, 10.73, 0.0, 8.85, 9.48, 12.79, 15.78, 20.12, 23.63, 20.77, 18.91, 16.01, 15.2, 14.3, 13.59, 13.01, 12.14, 11.71, 11.71, 11.71]}, {"header": {"dx": 0.06612293990616946, "dy": 0.0552356325346848, "nx": 98, "ny": 59, "la1": 35.046912555036876, "la2": 31.78801023549047, "lo1": -121.43107172385933, "lo2": -114.95102361305473, "refTime": "2026041612", "parameterCategory": 1, "parameterNumber": 3}, "data": [-16.26, -16.39, -16.25, -16.14, -15.76, -14.79, -14.39, -14.21, -13.34, -12.95, -12.62, -11.76, -12.87, -11.6, -12.07, -11.28, -10.4, -6.71, -5.2, -3.96, -2.13, -0.0, 1.91, 4.15, 4.15, 5.2, 2.93, 3.04, -0.0, 3.82, 5.6, 12.96, 12.52, 9.3, 5.7, 3.65, 1.33, 0.0, -1.54, -1.69, -2.39, -3.53, -4.58, -5.99, -7.13, -8.86, -12.21, -14.08, -9.75, 6.2, 13.57, 11.33, 10.75, 11.06, 10.3, 9.77, 9.2, 7.88, 7.21, 6.99, 6.18, 6.6, 6.1, 6.95, 7.69, 7.93, 7.68, 7.21, 7.21, 7.2, 7.2, 6.35, 7.0, 8.05, 8.68, 7.6, 6.1, 3.93, 10.43, 7.59, 8.94, 6.0, -0.0, -3.96, -3.82, -0.0, -0.0, -0.0, -7.9, -5.0, -6.21, -7.11, -7.69, -7.59, -5.48, 0.0, 2.13, 3.56, -16.26, -16.52, -16.39, -15.99, -15.59, -15.19, -14.39, -13.99, -13.38, -12.74, -12.17, -12.74, -10.37, -8.85, -9.17, -10.8, -10.73, -10.04, -7.24, -6.16, -5.28, -3.56, -0.0, 3.14, 5.52, 7.9, 6.97, 2.93, -0.0, -0.0, -0.0, 6.2, 11.87, 9.83, 5.69, 3.32, 1.0, 0.0, -1.16, -3.61, -5.08, -7.79, -7.78, -10.01, -13.17, -15.6, -15.94, -11.6, 0.0, 13.19, 11.33, 9.89, 9.12, 9.33, 9.49, 8.97, 9.2, 8.43, 7.21, 6.99, 6.99, 6.18, 7.68, 7.95, 8.51, 8.66, 8.41, 7.93, 7.97, 7.98, 7.84, 7.2, 5.98, 6.8, 9.49, 7.82, 6.18, 3.93, 10.43, 7.59, 8.94, 6.0, -0.0, -3.96, -3.82, -0.0, -0.0, -0.0, -7.9, -5.0, -6.21, -7.11, -7.69, -7.59, -5.48, 0.0, 2.13, 3.56, -16.26, -16.52, -16.39, -16.13, -16.14, -15.43, -14.62, -14.2, -13.2, -12.99, -11.97, -10.2, -11.12, -8.53, -5.2, -2.82, -5.2, -9.67, -10.8, -8.1, -6.97, -6.21, -4.93, -2.2, 2.72, 5.52, 6.44, 5.95, -0.0, -2.82, -6.6, -3.69, -0.0, 11.18, 2.69, 0.0, 0.0, -0.89, -3.65, -5.57, -7.73, -10.04, -12.64, -14.54, -15.8, -13.4, -9.67, 0.0, 10.43, 8.83, 8.06, 7.38, 7.38, 8.43, 9.8, 9.49, 8.94, 7.97, 6.99, 6.6, 6.99, 6.78, 7.44, 8.66, 8.66, 9.57, 8.85, 9.54, 9.09, 8.28, 7.57, 7.2, 4.3, 3.69, 6.6, 4.66, 4.81, 4.47, 4.52, 8.85, 11.44, 9.48, -0.0, -2.93, -0.0, -0.0, 7.9, 0.0, -3.53, -6.44, -6.95, -8.18, -9.06, -8.18, 0.0, 8.05, 6.67, 3.04, -16.52, -16.52, -16.39, -15.85, -15.99, -15.59, -15.19, -14.42, -13.81, -12.81, -11.8, -10.81, -10.87, -9.08, -8.22, -6.97, -4.32, -6.21, -9.67, -8.53, -5.54, -5.0, -4.4, -4.62, -3.47, -0.0, 2.49, 3.11, -0.0, -3.53, -8.53, -9.8, -13.02, -14.84, -11.2, -6.44, -5.29, -5.32, -7.36, -9.48, -11.7, -13.59, -13.91, -10.99, -7.59, -3.81, 0.0, 5.31, 5.04, 3.88, 5.04, 6.8, 7.16, 9.06, 9.8, 9.22, 7.92, 6.99, 6.99, 5.63, 6.18, 7.21, 8.41, 9.27, 9.8, 9.92, 10.57, 10.65, 11.48, 10.47, 9.23, 6.62, 5.81, 2.89, 0.0, 0.0, 0.0, 2.15, 4.81, 9.8, 9.48, 9.48, -0.0, -3.68, -0.0, 8.22, 8.53, 0.0, -4.15, -6.73, -7.82, -8.85, -8.31, 0.0, 12.96, 11.5, 5.8, 1.55, -16.52, -16.52, -16.52, -15.99, -16.13, -15.84, -15.43, -15.01, -13.64, -12.41, -11.64, -11.02, -10.48, -9.97, -8.73, -9.08, -7.26, -6.45, -6.97, -11.71, -5.8, -3.96, -3.68, -3.19, -3.98, -3.32, -2.45, -0.0, -7.9, -10.28, -10.73, -10.0, -10.62, -12.08, -14.19, -12.42, -13.2, -9.8, -11.82, -13.18, -12.84, -9.82, -6.42, -2.48, 0.0, 1.06, 2.18, 1.02, 1.13, 2.5, 5.48, 6.4, 6.95, 9.71, 9.71, 8.46, 6.6, 6.6, 6.18, 5.63, 5.14, 6.64, 8.66, 10.97, 10.92, 11.7, 12.01, 11.7, 12.96, 12.69, 10.26, 8.0, 8.2, 7.8, 2.57, -2.54, -5.15, 0.0, 5.46, 13.41, -0.0, 0.0, -8.53, -3.53, -0.0, -0.0, -2.93, -3.68, -6.51, -7.82, -6.95, -5.8, 0.0, 12.96, 12.96, 8.05, 1.83, 0.0, -16.52, -16.52, -16.52, -15.99, -15.85, -15.99, -15.59, -14.85, -14.22, -13.03, -11.28, -10.09, -10.48, -9.97, -9.58, -8.73, -8.73, -8.22, -7.15, -11.62, -7.65, -6.08, -6.0, -5.28, -4.93, -6.7, -8.53, -9.42, -11.6, -12.07, -9.33, -9.2, -10.28, -10.73, -11.95, -13.25, -11.99, -10.24, -11.14, -11.34, -10.56, -10.12, -3.01, 0.0, 0.0, -0.87, -1.72, -0.95, 0.0, 1.42, 3.98, 5.63, 7.34, 8.31, 8.85, 6.6, 6.1, 6.1, 5.3, 4.81, 5.33, 7.44, 11.03, 11.3, 11.91, 12.01, 12.33, 12.24, 11.48, 11.9, 9.8, 9.0, 9.71, 9.2, 6.81, 2.96, 0.0, 0.0, 4.81, 11.6, -6.7, -11.62, -11.18, -8.22, -8.22, -11.62, -9.42, -6.9, -7.06, -7.36, -6.67, -4.24, 13.41, 11.6, 12.96, 0.0, 0.0, -1.38, -16.52, -16.52, -16.52, -16.12, -15.99, -16.13, -15.44, -15.43, -14.26, -13.25, -11.12, -9.7, -9.46, -7.9, -7.24, -7.59, -7.9, -9.08, -8.22, -9.3, -9.58, -8.49, -9.36, -8.85, -9.5, -9.46, -10.16, -11.45, -11.5, -10.32, -11.18, -4.4, 0.0, -4.83, -9.77, -12.18, -11.55, -10.09, -8.22, -8.93, -11.87, -11.92, -11.64, -9.12, -7.49, -5.34, -3.9, -1.17, 0.0, 0.0, 1.77, 4.87, 7.1, 7.32, 6.4, 5.63, 5.31, 5.31, 3.76, 4.38, 6.0, 8.83, 11.44, 12.03, 12.36, 12.29, 11.36, 10.05, 8.97, 7.04, 6.84, 7.3, 6.81, 5.5, 4.79, 4.79, 4.47, 4.24, 6.0, 3.25, -9.67, -11.62, -12.07, -11.84, -12.07, -12.14, -11.53, -9.5, -8.2, -6.65, -9.48, 0.0, 11.99, 11.99, 9.48, 0.0, -1.77, -1.5, -16.12, -16.12, -16.12, -16.12, -15.99, -16.13, -15.59, -14.88, -14.46, -13.1, -11.3, -9.86, -10.09, -9.08, -6.21, -6.44, -7.26, -7.02, -7.65, -7.56, -5.0, -7.9, -10.35, -11.21, -11.8, -11.03, -11.45, -11.44, -9.86, -9.3, -10.6, -11.62, -10.84, -7.59, -7.9, -9.16, -10.0, -9.3, -8.85, -9.97, -10.6, -11.45, -11.8, -11.69, -11.1, -10.05, -2.57, 2.28, 4.05, 2.35, 2.45, 4.98, 7.69, 6.88, 6.2, 6.2, 5.63, 5.15, 3.53, 4.43, 5.86, 8.73, 10.75, 11.88, 12.22, 11.19, 9.74, 5.81, 4.66, 3.79, 3.75, 3.84, 2.13, 1.04, 1.01, 2.89, 5.63, 5.28, 4.36, 2.49, 0.77, -11.2, -12.07, -12.52, -12.44, -12.45, -11.16, -9.48, -8.44, -7.78, 0.0, 5.8, 9.48, 13.86, 0.0, 0.0, -1.71, -2.82, -16.12, -16.12, -16.12, -16.12, -15.99, -15.85, -15.59, -15.05, -14.31, -13.29, -11.56, -10.8, -11.92, -11.44, -9.82, -8.53, -7.73, -7.85, -7.56, -6.2, -2.71, 0.0, 0.0, -12.07, -10.8, -11.2, -9.04, -8.15, -9.08, -8.73, -11.35, -12.07, -12.47, -11.56, -9.81, -8.23, -8.93, -9.32, -9.3, -9.3, -12.14, -11.87, -10.61, -11.64, -11.9, 0.0, 11.38, 9.42, 8.93, 8.43, 7.59, 6.67, 7.44, 6.88, 6.2, 6.2, 5.63, 4.43, 4.28, 4.12, 5.08, 10.75, 10.75, 12.02, 12.36, 10.19, 7.21, 4.62, 2.09, 1.63, 2.65, 2.05, 0.0, 0.0, 0.0, 0.0, 1.25, 1.83, 1.57, 1.51, 1.64, -7.44, -14.3, -13.86, -12.22, -11.87, -10.99, -9.17, -7.82, -5.8, 12.96, 9.17, 9.17, 0.0, 0.0, -1.77, -2.82, -2.93, -15.72, -16.12, -16.12, -16.12, -15.99, -15.99, -15.46, -15.19, -14.1, -13.15, -12.5, -11.94, -11.6, -11.99, -12.18, -11.2, -11.12, -11.12, -10.48, -10.0, -9.2, -9.3, -6.45, -3.68, -11.18, -10.0, -8.18, -8.82, -10.73, -11.45, -12.52, -14.25, -13.86, -12.07, -11.51, -11.03, -7.59, -6.32, -3.68, 0.0, -8.53, -10.01, -8.53, -6.97, -3.68, 9.17, 11.16, 11.44, 12.22, 12.02, 11.33, 10.43, 8.31, 6.88, 6.2, 5.81, 3.98, 2.16, 1.84, 3.29, 7.82, 13.46, 14.51, 13.1, 12.36, 10.13, 6.64, 5.98, 1.96, 0.0, 0.0, 0.0, 0.0, 0.0, 0.0, -1.06, -3.53, -2.82, -2.22, -0.75, 0.0, 0.0, -16.54, -15.43, -13.86, -13.15, -11.88, -9.8, -6.0, 0.0, 0.0, 0.0, -12.52, -12.3, -6.67, -3.44, -4.39, -4.93, -15.72, -15.72, -16.12, -16.12, -16.12, -15.99, -15.46, -14.52, -14.26, -13.71, -12.77, -12.59, -12.59, -12.64, -12.21, -12.82, -13.77, -13.07, -13.75, -14.15, -15.43, -15.55, -14.47, -6.94, -9.17, -10.18, -8.82, -7.68, -8.55, -12.22, -12.0, -9.7, -9.83, -0.0, -9.54, -11.28, -8.22, -2.82, 3.68, 8.85, 9.17, -5.6, -5.2, -5.4, -3.68, 2.82, 8.53, 9.77, 10.79, 11.99, 11.33, 10.47, 8.53, 7.2, 6.54, 4.75, 2.72, 0.0, 0.0, 3.68, 14.51, 15.99, 14.79, 14.39, 13.65, 12.64, 10.66, 7.26, 2.15, -1.55, -3.36, -2.56, -2.65, -2.8, -2.8, -3.25, -4.87, -5.35, -7.21, -6.43, -4.81, -1.73, 0.0, -14.13, -14.39, -14.75, -10.75, 0.0, 0.0, 0.0, 0.0, -12.52, -12.52, -12.27, -9.42, -8.3, -6.43, -5.8, -15.72, -15.72, -16.12, -16.12, -16.12, -15.99, -15.59, -14.66, -14.52, -13.42, -12.85, -12.85, -13.02, -12.39, -11.16, -11.3, -10.4, -11.44, -12.25, -13.07, -13.99, -14.75, -14.3, -15.65, 0.0, -12.52, -12.07, -0.0, -7.59, -10.41, -10.84, -0.0, 8.58, 8.23, -0.0, -10.73, -9.6, 0.0, 8.22, 8.53, 10.41, 8.53, -0.0, 0.0, -7.59, 0.0, 3.82, 6.94, 7.19, 7.69, 6.4, 5.23, 4.55, 4.36, 3.77, 3.44, 3.31, 0.0, -2.37, 13.15, 17.88, 17.39, 16.54, 15.61, 15.61, 16.3, 15.8, 12.65, 4.36, 0.0, -3.88, -4.97, -4.96, -5.85, -4.99, -4.01, -4.87, -7.92, -8.91, -8.91, -7.2, -3.16, 0.0, 0.0, 0.0, 0.0, 0.0, 0.0, 0.0, 0.0, 0.0, -10.4, -11.62, -11.4, -11.2, -9.17, -8.3, -7.19, -15.72, -15.72, -15.72, -16.12, -16.12, -16.12, -15.59, -15.06, -14.52, -13.97, -13.42, -13.23, -13.23, -12.65, -11.45, -10.47, -10.45, -10.99, -11.85, -12.7, -13.94, -14.75, -15.2, -0.0, -0.0, 0.0, 13.41, 12.96, 11.84, 4.4, -0.0, 2.71, 4.8, 4.6, 2.49, -0.0, -0.0, -0.0, 2.71, 5.0, 5.98, 6.97, 6.2, -0.0, 0.0, 0.0, -8.22, -8.53, -7.19, -6.0, -5.6, -6.0, -7.1, -6.17, -5.37, 0.0, 2.84, 5.53, 0.0, 10.04, 15.61, 16.44, 17.02, 16.09, 18.33, 19.34, 18.6, 18.71, 14.75, 12.42, 6.14, 0.0, -3.93, -5.77, -4.4, -4.81, -6.6, -8.28, -8.53, -6.14, -5.09, -7.4, -5.09, -4.01, 0.0, 0.0, 0.0, -3.51, 0.0, 0.0, 0.0, 0.0, -10.0, -11.4, -11.2, -9.96, -9.17, -9.48, -15.72, -15.72, -16.12, -16.12, -16.12, -16.12, -15.59, -15.19, -15.06, -14.24, -13.3, -13.42, -13.23, -12.91, -12.32, -10.7, -10.09, -10.13, -10.81, -12.23, -13.2, -13.75, -14.75, -10.43, -6.4, -0.0, -0.0, 7.69, 9.48, 7.82, 3.39, 2.6, -0.0, -0.0, -0.0, -0.0, -0.0, -0.0, 2.49, 6.44, 5.52, 4.6, 5.95, 7.27, 9.83, 10.28, -9.39, -10.6, -9.67, -10.01, -10.41, -10.35, -9.42, -8.53, -6.94, -3.04, 0.0, 0.0, 0.0, 13.44, 11.53, 15.65, 16.54, 16.99, 16.54, 16.54, 16.19, 15.62, 17.85, 16.12, 16.75, 15.8, 0.0, -7.27, -6.98, -7.59, -7.4, -7.8, 0.0, 7.6, 0.0, -11.7, -8.29, -7.28, -4.12, -3.24, -3.88, -6.81, -4.23, 0.0, 0.0, 0.0, -3.53, -10.41, -9.77, -9.17, -7.78, -9.17, -15.72, -15.72, -16.12, -16.12, -16.12, -16.52, -16.12, -15.33, -14.79, -14.4, -13.68, -13.12, -13.12, -12.91, -12.24, -10.99, -10.3, -10.43, -10.47, -11.28, -11.42, -11.53, -13.28, -14.3, -10.12, -4.38, -0.0, 3.36, 6.0, 4.98, 4.65, 2.02, -0.0, -0.0, -4.6, -4.6, -4.8, -4.4, 3.53, 5.9, 6.17, 4.8, 5.46, 6.95, 6.95, 6.95, 6.95, -0.0, -10.73, -11.18, -9.67, -7.9, -4.8, 0.0, 9.83, 0.0, -10.4, -6.88, 0.0, 16.54, 11.6, 9.17, 13.15, 13.57, 13.99, 15.2, 11.7, 7.6, 13.39, 16.09, 15.8, 19.19, 20.56, -12.52, -10.47, -8.51, 0.0, 9.92, 12.01, 7.6, -7.8, -12.01, -10.02, -6.0, -7.19, -7.38, -4.37, -2.65, 0.0, 0.0, 0.0, 0.0, -2.82, -3.04, -6.0, -9.17, -11.6, -11.6, -15.72, -15.72, -16.12, -16.12, -16.12, -16.52, -16.12, -15.86, -14.94, -14.4, -13.85, -13.3, -13.12, -12.74, -12.45, -11.93, -11.28, -10.3, -10.43, -10.82, -10.9, -10.73, -11.53, -14.47, -13.99, -8.18, -0.0, 3.36, 4.98, 4.98, 4.98, 2.37, -0.0, -0.0, -10.28, -8.0, -4.6, 3.25, 4.8, 5.29, 4.2, 5.21, 5.7, 5.46, 6.95, 6.64, 6.95, 5.7, 7.27, 7.27, 0.0, 0.0, 11.62, 10.73, 9.39, 0.0, -7.27, -6.45, 0.0, 14.84, 12.07, 5.2, 5.2, 8.53, -0.0, 0.0, -12.96, 0.0, 13.39, 15.74, 17.17, 18.78, -8.4, -18.21, -14.75, 0.0, 17.19, 16.79, 12.96, 12.96, 0.0, -12.96, -12.01, -6.6, -5.4, -3.53, -6.9, -2.13, 0.0, 0.0, 0.0, -4.81, -3.14, -2.63, -3.04, -3.82, -11.2, -11.2, -15.72, -15.72, -16.12, -16.12, -16.12, -16.52, -16.52, -15.86, -15.33, -14.94, -14.01, -13.68, -13.3, -12.65, -12.09, -12.16, -11.28, -11.23, -10.3, -10.41, -10.47, -10.18, -10.3, -11.09, -13.88, -14.3, -6.6, -0.0, 3.58, 5.31, 4.98, 2.54, -0.0, -0.0, -6.32, -0.0, 1.93, 3.98, 4.6, 5.9, 4.4, 4.0, 4.6, 4.96, 5.46, 5.46, 5.7, 5.7, 7.27, 7.27, 4.6, 7.59, 11.18, 10.73, 10.73, 0.0, 0.0, 4.8, 10.8, 11.6, 12.52, 5.0, 3.39, 4.8, 4.8, 0.0, 0.0, -11.62, 0.0, 0.0, 0.0, -11.0, -14.3, -19.51, -12.64, 16.79, 19.22, 18.26, 15.74, 15.02, 14.88, 7.8, -7.6, -8.43, 0.0, 0.0, -8.53, 0.0, -3.25, -4.38, -3.58, -4.24, -4.65, -4.81, -4.81, -4.48, -8.85, -8.85, -15.72, -15.72, -16.12, -16.12, -16.12, -16.52, -16.52, -15.86, -15.47, -14.67, -14.4, -13.85, -13.02, -12.65, -12.37, -11.8, -11.28, -11.28, -10.99, -10.01, -10.06, -10.13, -9.85, -9.97, -7.79, -7.36, -10.75, -15.2, -0.0, 3.69, 4.66, 3.68, 1.77, 1.84, 1.52, 2.02, 2.7, 1.69, 1.93, 2.39, 3.11, 3.11, 3.11, 3.25, 5.7, 5.7, 3.39, 3.25, 4.6, 4.6, 4.6, 7.27, 7.27, 10.28, 10.28, 7.27, 4.6, 4.8, 0.0, 0.0, 0.0, 5.2, 3.39, 5.95, 7.59, 6.95, 8.4, -10.28, -10.8, -13.99, -19.08, -13.91, -15.74, -17.17, -0.0, 12.01, 17.88, 17.81, 16.37, 14.66, 12.33, 10.73, 0.0, -9.48, 0.0, -12.52, -10.79, -5.8, -8.05, -7.93, -5.02, -3.56, -5.2, -6.21, -4.81, -4.81, -6.94, -6.94, -15.72, -15.72, -15.72, -15.72, -16.12, -16.12, -16.52, -15.86, -15.86, -15.06, -14.13, -13.95, -13.58, -12.37, -12.82, -11.9, -11.23, -11.58, -10.94, -9.15, -9.48, -10.07, -10.52, -10.09, -8.85, -6.2, -7.19, -11.53, -13.41, -0.0, 2.28, 3.14, 2.72, 3.47, 3.53, 3.16, 2.15, 0.82, -0.0, -0.0, -0.0, 2.49, 2.71, 2.71, 3.68, 3.39, 3.39, 3.25, 4.6, 4.6, 7.27, 9.2, 9.2, 10.28, 10.28, 9.2, 4.6, 0.0, 0.0, 0.0, 0.0, 8.22, 7.9, 8.18, 7.87, 7.51, 8.91, 0.0, -6.7, -7.36, -3.51, 0.0, 0.0, 0.0, 0.0, 11.06, 16.09, 9.17, 6.31, 7.8, 3.33, 0.0, -11.38, -12.52, -13.41, -13.15, -12.72, -11.26, -10.3, -10.91, -10.12, -5.28, -5.4, -7.26, -7.13, -7.36, -7.13, -7.13, -15.72, -15.72, -15.72, -15.72, -16.12, -16.12, -15.86, -15.86, -15.6, -15.06, -14.51, -14.13, -13.58, -12.73, -12.93, -11.44, -11.44, -11.16, -10.66, -9.69, -10.12, -10.4, -11.11, -10.94, -10.37, -10.55, -10.12, -12.56, -13.86, -9.17, -0.0, 1.77, 2.62, 3.18, 2.61, 2.25, 2.25, 1.52, 0.82, 0.85, 1.92, 2.1, 2.42, 2.71, 1.84, -0.0, 3.25, 3.25, 3.25, 4.4, 6.95, 7.27, 9.6, 10.0, 9.83, 9.33, 7.9, 0.0, 0.0, 0.0, -0.0, 4.8, 7.59, 8.93, 8.55, 9.2, 9.75, 7.9, 0.0, 1.48, 3.72, 4.51, 4.52, 1.25, -2.61, -8.21, -13.8, -12.57, -5.23, -2.79, 0.0, -3.24, -8.43, -13.41, -13.86, -13.23, -12.72, -11.6, -11.26, -11.5, -11.99, -9.48, -8.3, -9.17, -10.82, -10.75, -9.22, -9.22, -15.72, -15.72, -15.72, -15.72, -15.72, -15.72, -15.86, -15.86, -15.6, -15.45, -14.67, -14.13, -13.58, -12.93, -13.1, -12.45, -11.8, -11.35, -11.22, -11.42, -11.34, -11.4, -12.08, -11.87, -12.0, -11.9, -12.39, -12.66, -12.07, -9.97, -2.28, -0.0, -0.0, 1.16, 1.91, 1.7, 1.7, 1.63, 1.76, 1.84, 2.94, 3.21, 3.53, 4.24, 3.68, 3.82, 3.11, 3.25, 3.25, 3.25, 3.11, 7.27, 7.59, 10.0, 10.73, 10.28, 10.6, 10.0, 0.0, -11.18, -0.0, 7.9, 7.59, 7.9, 7.27, 7.59, 9.6, 10.8, 7.78, 9.02, 9.77, 8.63, 5.92, 0.0, -4.77, -11.73, -15.78, -14.88, -13.76, -10.75, -7.0, -3.07, -6.6, -11.16, -13.86, -13.41, -13.41, -12.72, -9.48, -10.35, -12.04, -11.64, -10.12, -9.48, -12.39, -13.19, -11.52, -11.52, -15.31, -15.72, -15.72, -15.72, -15.72, -15.47, -15.47, -15.86, -15.6, -15.06, -14.67, -13.85, -13.48, -13.3, -12.8, -12.8, -12.09, -12.09, -11.99, -12.37, -12.17, -11.6, -11.6, -11.36, -11.17, -11.34, -12.27, -12.66, -12.07, -11.45, -7.24, -1.91, -0.0, -0.0, 1.16, 1.01, 0.97, 1.91, 2.0, 2.94, 3.21, 3.53, 4.54, 4.24, 4.4, 3.39, 3.39, 4.4, 4.6, 3.25, 3.25, 3.39, 7.59, 7.9, 10.18, 11.18, 11.28, 12.14, -0.0, -7.59, -0.0, 8.93, 10.0, 9.3, 5.0, 7.9, 8.22, 12.07, 12.3, 14.31, 14.84, 14.22, 11.23, 3.41, -8.8, -11.62, -15.52, -16.99, -16.6, -15.12, -13.42, -7.4, 0.0, 0.0, 0.0, 0.0, 0.0, -14.3, -10.43, -8.53, -10.04, -12.33, -11.9, -11.17, -12.79, -13.57, -13.7, -13.7, -15.07, -15.07, -15.07, -15.47, -15.47, -15.47, -15.47, -15.47, -15.21, -15.06, -14.4, -14.03, -13.85, -13.3, -13.01, -12.45, -12.45, -12.16, -12.16, -12.16, -12.24, -11.6, -11.16, -10.79, -10.96, -11.18, -11.97, -13.27, -12.96, -12.04, -9.66, -5.2, -2.28, -0.0, -0.0, 1.16, 1.05, 2.08, 2.28, 3.34, 3.68, 4.72, 5.2, 5.2, 5.77, 5.0, 5.95, 6.64, 6.64, 4.6, 3.25, 3.39, 5.95, 7.9, 8.93, 9.6, 10.38, 12.04, 12.96, 0.0, 0.0, 10.28, 11.62, 11.62, 10.0, 10.6, 11.62, 11.18, 11.62, 12.52, 13.86, 0.0, 8.34, -0.0, -8.05, -9.24, -12.04, -14.05, -15.91, -16.17, -13.72, -15.65, 11.06, 11.06, 10.43, 9.8, 0.0, -12.79, -10.75, -9.12, -9.17, -11.16, -11.17, -10.12, -12.79, -14.03, -14.03, -14.03, -15.07, -15.07, -15.07, -15.07, -15.47, -15.47, -15.47, -15.47, -15.21, -15.21, -14.4, -14.03, -13.85, -13.58, -13.01, -12.45, -12.09, -12.16, -12.37, -12.22, -11.63, -11.64, -11.32, -11.06, -11.06, -11.05, -11.64, -12.62, -13.33, -12.86, -11.62, -8.53, -5.2, -2.19, -0.0, -0.0, 1.23, 2.19, 2.52, 3.68, 4.08, 4.08, 5.77, 5.77, 6.76, 6.2, 6.94, 7.9, 7.59, 7.9, 5.2, 3.53, 3.39, 5.95, 7.27, 7.27, 8.23, 9.66, 12.3, 8.22, 4.0, 7.81, 11.18, 11.62, 11.18, 12.07, 12.07, 12.52, 11.18, 11.18, -11.18, -12.85, -11.6, -0.0, -0.0, -13.41, -12.89, -12.3, -13.7, -14.42, -13.86, -14.3, -0.0, 14.3, 10.43, 0.0, 0.0, -6.6, -6.8, 0.0, -8.31, -9.48, -9.8, -9.8, -13.57, -14.3, -13.15, -13.15, -15.07, -15.07, -15.07, -15.07, -15.07, -15.07, -15.47, -15.47, -15.21, -15.21, -14.4, -14.03, -14.03, -13.58, -13.58, -13.01, -12.45, -12.37, -12.09, -12.45, -11.92, -11.93, -11.72, -11.32, -11.26, -11.17, -11.5, -11.99, -13.15, -13.41, -12.79, -11.6, -10.41, -6.45, -2.19, -0.0, -0.0, 1.39, 2.71, 4.08, 4.58, 4.58, 6.2, 6.2, 7.15, 6.87, 6.45, 7.59, 8.43, 8.43, 9.2, 8.85, 5.95, 5.95, 5.7, 7.27, 6.17, 5.9, 9.67, 11.87, 7.9, 6.64, 9.83, 10.73, 11.62, 12.07, 12.07, 12.07, 12.07, -8.22, -11.5, -9.39, -6.02, 0.0, 0.0, 0.0, -15.99, -14.53, -13.15, -12.33, -13.32, -13.59, -13.41, -0.0, 0.0, 0.0, 0.0, 0.0, 0.0, 15.65, 16.12, -4.66, -10.12, -10.43, -13.41, -9.8, -3.36, -3.36, -14.67, -14.67, -14.67, -15.07, -15.07, -15.07, -15.07, -14.82, -15.21, -15.21, -14.4, -14.4, -13.58, -13.58, -13.58, -13.01, -12.45, -12.45, -12.45, -12.16, -11.92, -12.22, -12.0, -11.8, -11.42, -11.37, -11.12, -11.6, -12.18, -12.86, -12.96, -12.96, -12.14, -11.45, -8.22, -2.71, -0.0, 1.52, 3.07, 4.4, 5.0, 5.2, 6.98, 6.98, 6.7, 7.59, 8.22, 7.27, 8.43, 9.33, 10.6, 10.38, 10.41, 8.53, 6.71, 6.44, 4.6, 4.4, 5.7, 10.4, 11.45, 10.8, 9.11, 9.83, 11.18, 12.07, 12.52, 12.52, 12.96, 0.0, -10.04, -7.36, -4.47, 0.0, 2.26, 8.34, 3.6, -10.73, -10.79, -9.97, -11.16, -11.88, -15.2, 4.38, 4.52, 0.0, 0.0, 14.75, 14.75, 15.2, 16.99, 7.4, -10.75, -13.99, -13.86, -4.52, -0.0, -0.0, -14.67, -14.67, -14.67, -15.07, -15.07, -15.07, -15.07, -14.82, -14.82, -14.82, -14.4, -14.13, -13.58, -13.58, -13.58, -13.58, -13.01, -12.45, -12.45, -12.16, -11.92, -11.87, -11.93, -12.07, -11.8, -11.53, -11.5, -11.26, -11.6, -12.3, -12.83, -11.87, -12.27, -12.07, -12.07, -11.62, -10.4, -0.0, 3.39, 4.6, 7.9, 9.3, 10.4, 8.58, 8.23, 8.94, 10.0, 9.2, 8.8, 9.13, 10.58, 11.06, 9.75, 7.9, 6.71, 4.8, 4.8, 2.49, 2.28, 2.49, 11.45, 11.18, 10.84, 10.73, 12.52, 11.62, 12.07, 12.96, 0.0, -9.17, -10.79, -7.44, -7.16, -4.47, 1.67, 8.62, 6.47, -3.23, -9.13, -9.13, -9.08, -10.12, -14.3, 4.81, 2.72, 6.6, 15.65, 15.65, 15.2, 14.75, 15.2, 7.4, 0.0, -16.54, -15.2, -0.0, -0.0, -0.0, -14.67, -14.67, -14.67, -15.07, -15.07, -15.07, -14.82, -14.82, -14.82, -14.82, -14.4, -14.13, -13.94, -13.58, -13.58, -13.58, -13.38, -13.01, -12.51, -12.51, -11.92, -11.87, -11.93, -11.64, -11.45, -11.54, -11.53, -10.91, -10.29, -10.12, -10.73, -10.8, -10.8, -11.21, -11.84, -11.28, -11.62, -11.18, -0.0, 9.6, 10.6, 11.28, 10.84, 10.28, 9.83, 10.73, 10.28, 9.97, 9.54, 10.08, 11.02, 10.73, 10.73, 9.89, 8.24, 6.45, 5.0, 2.6, 2.02, 3.82, 6.2, 10.6, 11.18, 12.07, 11.62, 12.52, 13.41, 0.0, -12.07, -11.6, -7.93, -6.4, -7.11, -8.31, -7.54, -6.22, -6.81, -9.89, -13.59, -9.55, -8.73, -8.22, -9.48, 3.96, 3.04, 4.38, 10.43, 15.18, 15.65, 14.75, 0.0, 0.0, 0.0, -15.19, -16.54, -15.65, -15.2, -15.2, -14.54, -14.54, -14.67, -14.67, -15.07, -14.82, -14.82, -14.82, -14.82, -14.82, -14.4, -14.13, -13.94, -13.58, -13.58, -13.58, -13.38, -13.09, -12.73, -12.51, -11.92, -12.22, -11.93, -11.88, -11.36, -10.76, -10.47, -10.55, -9.92, -10.01, -9.42, -9.53, -9.82, -10.04, -9.97, -9.3, -9.67, -5.0, 0.0, 10.73, 11.18, 11.18, 11.18, 12.07, 12.07, 10.14, 9.21, 9.64, 10.28, 10.28, 11.18, 10.73, 10.28, 10.28, 10.62, 8.93, 8.53, 5.2, 3.98, 5.0, 5.0, 6.2, 8.53, 11.2, 11.71, 12.96, 13.86, 12.52, -10.4, -11.62, -9.8, -1.83, -3.65, -7.69, -11.44, -14.66, -18.23, -18.96, -18.78, -15.77, -8.53, -6.77, -6.94, 0.0, 9.17, 9.48, 9.48, 10.43, 13.59, 15.2, 0.0, 0.0, 0.0, -5.09, -15.19, -16.12, -14.79, -14.79, -14.54, -14.54, -14.54, -14.67, -14.82, -14.82, -14.82, -14.82, -14.82, -14.82, -14.82, -14.13, -13.94, -13.58, -13.58, -13.38, -13.38, -13.09, -13.09, -12.22, -12.26, -12.22, -11.63, -11.33, -11.04, -10.43, -10.13, -9.84, -9.56, -9.23, -9.26, -8.53, -8.53, -8.22, -7.44, -7.26, -6.97, -5.0, 0.0, 0.0, 7.59, 10.18, 10.84, 10.52, 11.02, 11.28, 9.3, 8.82, 9.55, 10.38, 10.6, 9.75, 10.18, 10.18, 10.62, 10.62, 8.0, 5.92, 3.68, 3.53, 2.1, -0.0, -0.0, 3.68, 10.8, 12.27, 13.41, 14.3, 0.0, -9.83, -9.6, -2.63, 0.0, -2.25, -8.94, -13.04, -14.7, -17.1, -18.33, -17.99, -14.86, -8.24, -6.76, -2.45, 2.82, 10.12, 13.86, 4.52, -0.0, 6.6, 10.43, 0.0, 0.0, -3.79, -8.93, -14.51, -14.51, -14.51, -14.54, -14.54, -14.54, -14.29, -14.43, -14.82, -14.82, -14.82, -14.29, -14.29, -14.67, -14.4, -13.94, -13.66, -13.38, -13.01, -13.01, -13.09, -13.09, -12.56, -12.51, -11.92, -11.63, -11.33, -10.73, -10.09, -9.48, -9.17, -8.85, -8.46, -8.46, -8.42, -7.54, -7.41, -6.97, -5.54, -4.4, -3.53, -2.1, 0.0, 2.6, 5.95, 8.58, 9.96, 10.18, 11.45, 10.04, 8.93, 8.55, 10.0, 9.2, 9.2, 9.75, 10.62, 10.32, 10.62, 10.18, 9.46, 5.21, 1.84, -0.0, -2.82, -0.0, 6.45, 8.53, 9.3, 10.4, 12.96, 5.4, 0.0, 0.0, 0.0, 2.57, 2.83, -1.1, -7.17, -9.17, -7.59, -9.17, -13.91, -15.49, -13.59, -5.8, 0.0, 1.96, 3.93, 3.47, 14.3, 4.52, 8.18, 8.18, 13.19, 10.75, 4.95, -3.79, -7.2, -9.42, -9.42, -14.15, -14.15, -14.54, -14.29, -14.29, -14.29, -14.29, -14.29, -14.29, -14.29, -14.29, -14.4, -14.13, -13.66, -13.09, -13.01, -12.73, -12.73, -13.09, -12.22, -11.92, -11.58, -11.28, -10.69, -10.39, -9.78, -9.48, -8.84, -8.61, -7.09, -7.63, -8.01, -7.36, -6.48, -6.21, -4.72, -3.92, -2.71, -1.52, 0.0, 2.02, 3.98, 6.44, 7.59, 8.38, 8.73, 7.9, 7.59, 7.59, 7.9, 8.38, 8.03, 9.2, 9.6, 9.2, 9.89, 11.06, 10.84, 8.15, 3.25, -0.0, -2.82, 3.68, 7.9, 8.22, 7.9, 7.27, 8.22, 0.0, 0.0, 3.25, 0.0, -9.8, 0.0, 1.53, -2.3, -7.79, -7.9, -3.36, -2.94, -3.01, -3.51, 0.0, 1.58, 2.64, 1.51, 1.73, 0.0, 14.3, 11.53, 9.8, 11.9, 13.19, 13.59, 0.0, 0.0, 0.0, 0.0, -14.15, -14.15, -13.9, -14.29, -14.29, -14.29, -14.29, -14.29, -14.29, -14.29, -14.03, -14.03, -14.13, -13.94, -13.09, -12.73, -12.51, -12.51, -12.51, -11.92, -11.92, -11.33, -11.28, -10.69, -10.09, -9.78, -8.85, -8.85, -8.19, -8.61, -7.44, -7.24, -6.7, -6.08, -5.78, -3.97, -3.34, -2.42, -1.39, 0.0, 1.45, 2.95, 4.8, 5.95, 6.2, 6.87, 6.87, 6.58, 6.87, 6.87, 7.27, 7.27, 8.73, 8.38, 9.2, 9.6, 9.86, 10.73, 9.97, 7.59, 2.95, -0.0, 8.22, 8.93, 8.94, 7.9, 6.44, 5.7, 8.22, 9.17, 10.8, 0.0, -11.62, -9.35, -4.63, -1.39, -2.89, 0.0, 4.24, 2.35, 1.78, 2.11, 2.34, 2.05, 1.27, 0.0, 0.0, 0.0, 4.52, 13.41, 10.79, 11.16, 13.15, 14.3, 11.9, 6.8, 8.43, 8.43, -14.15, -14.15, -13.9, -13.9, -14.29, -14.29, -14.29, -14.29, -14.03, -14.03, -14.03, -14.03, -13.85, -13.94, -13.09, -12.73, -12.51, -12.16, -11.92, -11.92, -11.33, -11.33, -11.28, -10.69, -10.09, -9.48, -9.17, -8.54, -8.2, -7.46, -7.09, -6.97, -6.45, -6.08, -5.4, -3.97, -3.06, -2.28, -1.11, 0.0, 0.0, 2.49, 3.77, 5.32, 5.32, 5.98, 5.98, 5.98, 6.24, 5.32, 5.95, 6.98, 7.59, 8.03, 8.03, 9.2, 9.2, 9.46, 10.28, 9.86, 6.94, 7.9, 7.9, 9.3, 7.27, 7.59, 6.44, 4.8, 8.22, 8.85, 12.52, 0.0, -5.6, -9.33, -10.6, -4.04, 0.0, 6.16, 6.73, 4.52, 3.62, 1.37, 0.0, 0.0, 0.0, 0.0, 0.0, 1.38, 6.4, 12.72, 12.52, 11.87, 11.2, 13.41, 11.99, 10.43, 12.65, 12.65, -14.01, -14.01, -13.75, -13.9, -13.9, -14.29, -14.29, -14.03, -14.03, -14.03, -13.85, -13.85, -13.85, -13.58, -13.09, -12.51, -12.51, -11.92, -11.92, -11.66, -11.33, -11.33, -11.03, -11.03, -10.12, -9.48, -8.87, -8.54, -8.17, -7.82, -7.02, -6.62, -6.09, -5.86, -5.2, -3.68, -2.82, -2.08, -1.01, 0.0, 0.0, 2.23, 3.25, 4.8, 4.6, 4.6, 4.4, 4.6, 5.1, 5.32, 5.95, 6.98, 6.7, 7.27, 8.38, 8.03, 8.43, 9.33, 9.33, 9.89, 8.0, 8.22, 7.59, 9.3, 9.3, 6.2, 5.95, 6.2, 6.2, 8.53, 11.2, 13.86, 0.0, -4.6, -6.91, -3.73, 2.4, 6.44, 6.81, 5.33, 2.04, 0.0, -2.8, -3.69, 0.0, 1.47, 2.89, 4.66, 6.9, 10.01, 11.87, 12.52, 12.52, 12.52, 12.96, 12.96, 13.99, 13.99, -13.62, -13.62, -13.75, -13.75, -13.75, -13.75, -14.03, -14.03, -14.03, -13.85, -13.85, -13.85, -13.85, -13.21, -13.38, -13.09, -12.22, -11.63, -11.63, -11.66, -11.33, -11.05, -11.03, -10.74, -10.12, -9.5, -8.87, -7.96, -7.6, -7.51, -6.94, -6.53, -5.77, -5.3, -4.68, -3.29, -2.51, -1.84, -0.93, 0.0, 0.0, 2.1, 3.25, 3.11, 3.45, 3.45, 3.45, 3.61, 3.61, 4.23, 4.8, 5.52, 6.42, 7.59, 7.27, 6.95, 8.43, 8.43, 9.13, 10.28, 9.63, 6.32, 5.95, 5.7, 5.7, 7.9, 5.7, 7.59, 6.2, 6.2, 11.6, 12.96, 7.0, 2.4, 0.0, -1.16, 0.0, 3.62, 3.53, 0.91, 0.0, -1.15, -1.83, 0.0, 3.25, 4.81, 6.67, 6.44, 7.82, 6.67, 9.17, 11.6, 12.96, 12.96, 12.52, 12.96, 13.86, 13.86, -13.36, -13.36, -13.75, -13.75, -13.75, -13.48, -13.85, -13.85, -13.85, -13.85, -13.48, -13.48, -13.3, -13.3, -13.01, -12.51, -11.96, -11.63, -11.36, -11.03, -11.05, -11.05, -10.74, -10.43, -10.12, -9.17, -8.53, -8.24, -7.6, -6.56, -6.4, -5.92, -5.68, -4.92, -4.4, -3.76, -3.29, -1.7, -0.93, 0.0, 0.0, 1.07, 2.23, 3.07, 3.3, 2.39, 2.49, 2.49, 2.82, 4.23, 4.8, 5.52, 5.29, 7.59, 6.95, 6.95, 6.95, 8.05, 8.43, 9.7, 9.76, 8.63, 5.7, 5.46, 8.93, 9.3, 8.18, 9.2, 8.93, 8.93, 9.67, 12.3, 14.84, 5.94, 1.23, -2.36, -3.36, -4.67, -4.85, -5.42, -3.09, -1.2, 0.0, 0.0, 5.4, 6.67, 7.44, 7.19, 7.19, 6.67, 6.67, 7.44, 13.41, 0.0, 0.0, 0.0, 13.41, 13.41, -13.36, -13.36, -13.36, -13.75, -13.48, -13.48, -13.48, -13.48, -13.48, -13.48, -13.48, -13.3, -12.93, -12.93, -12.65, -12.45, -12.51, -11.36, -11.36, -10.75, -11.05, -10.43, -10.74, -10.43, -9.78, -9.48, -8.81, -8.15, -7.48, -6.56, -6.4, -5.92, -5.4, -4.66, -4.32, -3.53, -3.07, -2.34, -1.7, -0.89, 0.0, 0.0, 1.02, 1.64, 2.13, 2.13, 1.28, 1.28, 2.82, 3.39, 3.25, 5.29, 5.29, 6.17, 6.95, 6.64, 6.64, 8.05, 8.05, 9.13, 9.83, 9.11, 8.93, 6.64, 8.18, 8.93, 9.6, 8.55, 10.18, 10.6, 10.0, 11.6, 10.43, 1.58, 2.67, 1.42, -2.89, -8.16, -9.2, -9.0, -5.07, -2.5, 0.0, 2.09, 7.13, 8.38, 6.88, 6.88, 6.65, 6.65, 6.0, 4.98, 6.0, 0.0, 0.0, 0.0, 0.0, 13.41, -13.36, -13.36, -13.36, -13.36, -13.48, -13.48, -13.48, -13.48, -13.48, -13.48, -12.93, -12.93, -12.93, -12.73, -12.45, -12.45, -11.92, -11.63, -11.03, -10.75, -10.44, -10.43, -10.11, -10.12, -9.78, -9.13, -8.81, -8.15, -7.48, -6.8, -6.4, -5.92, -5.4, -4.84, -4.32, -3.68, -3.07, -2.34, -1.7, -0.89, -0.89, 0.0, 0.0, 1.09, 1.64, 1.93, 1.18, 1.33, 1.45, 3.25, 3.11, 5.06, 4.83, 4.83, 6.64, 6.64, 6.32, 7.67, 8.05, 8.05, 9.83, 9.11, 6.99, 8.18, 8.55, 7.27, 8.18, 8.55, 10.18, 10.6, 10.0, -0.0, 0.0, 0.0, 3.86, 9.42, 7.1, -1.6, -6.4, -7.44, -6.51, -3.68, 0.0, 3.68, 6.43, 6.88, 5.81, 5.99, 5.81, 4.38, 4.38, 3.81, 3.36, 0.0, -0.0, -6.0, -0.0, 0.0, -13.36, -13.36, -13.36, -13.2, -12.93, -12.93, -13.3, -13.3, -13.3, -12.93, -12.93, -12.93, -12.93, -12.37, -12.37, -11.87, -11.87, -11.58, -10.75, -10.43, -10.13, -10.11, -9.8, -9.78, -9.48, -9.13, -8.15, -8.15, -7.48, -7.04, -6.63, -5.7, -5.7, -5.2, -4.92, -4.32, -3.91, -3.07, -2.51, -1.63, -0.89, -0.93, 0.0, 0.0, 0.0, 0.0, 1.14, 1.28, 1.39, 2.7, 2.97, 2.97, 4.2, 4.6, 4.6, 5.59, 5.31, 6.98, 6.98, 8.05, 9.26, 9.32, 9.6, 8.18, 8.18, 8.55, 8.18, 7.59, 8.55, 10.6, 10.4, -0.0, -12.96, -9.8, 0.0, 7.22, 10.22, 6.61, 0.0, -5.8, -8.18, 0.0, 4.38, 4.24, 4.98, 3.98, 3.1, 3.2, 2.89, 2.56, 2.56, 1.42, 0.0, 0.0, -0.0, -3.14, -3.14, -3.14, -12.82, -12.82, -13.2, -13.2, -12.93, -12.93, -12.93, -12.93, -12.93, -12.93, -12.93, -12.93, -12.37, -12.37, -12.37, -11.87, -11.52, -11.33, -11.33, -10.13, -10.13, -9.5, -9.8, -9.17, -8.87, -8.83, -7.87, -7.87, -7.48, -6.8, -6.63, -5.92, -5.7, -5.47, -4.92, -4.32, -3.91, -3.19, -2.51, -2.51, -1.76, -0.97, -0.93, -1.02, 0.0, 0.0, 1.02, 1.09, 1.16, 2.28, 2.58, 2.46, 2.83, 4.0, 4.37, 4.37, 5.03, 6.01, 6.32, 6.32, 8.72, 8.87, 7.95, 8.18, 8.18, 6.95, 7.27, 8.55, 8.55, 9.3, 8.22, -0.0, -12.96, -12.52, -13.19, -5.98, 0.0, 4.49, 7.41, 8.8, 8.4, 9.48, 8.0, 4.95, 2.81, 2.48, 1.53, 0.0, 0.0, 0.0, 0.0, 0.0, 0.0, 0.0, -0.0, -0.0, -0.0, -0.0, -12.82, -12.82, -12.82, -13.2, -12.93, -12.93, -12.93, -12.93, -12.93, -12.93, -12.73, -12.37, -12.37, -12.37, -11.8, -11.52, -11.28, -11.28, -10.99, -10.43, -10.13, -9.5, -9.21, -8.87, -8.87, -8.24, -8.24, -7.6, -7.22, -7.09, -6.4, -5.92, -5.7, -5.47, -4.92, -4.32, -3.91, -3.19, -3.42, -2.51, -1.7, -1.76, -1.92, -0.97, -1.07, 0.0, 0.0, 0.0, 1.04, 1.11, 1.11, 1.26, 2.46, 2.83, 2.69, 4.37, 5.03, 5.03, 5.31, 5.59, 7.15, 8.94, 8.48, 9.6, 6.95, 6.95, 7.27, 8.93, 8.55, 7.9, 7.9, -0.0, -11.62, -12.3, -11.99, -10.75, -5.65, 0.0, 7.48, 12.83, 13.39, 13.14, 8.8, 6.05, 3.38, 2.48, 0.0, 0.0, -2.02, -1.58, -1.53, -1.72, 0.0, -0.0, -0.0, -0.0, -0.0, -0.0, -13.09, -13.09, -12.82, -13.2, -12.93, -12.93, -12.93, -12.73, -12.37, -12.37, -12.37, -12.37, -11.8, -11.8, -11.8, -11.28, -10.94, -10.94, -10.69, -10.43, -10.13, -9.82, -9.5, -9.21, -8.87, -8.24, -8.24, -7.6, -7.22, -6.84, -6.4, -6.4, -5.7, -5.2, -4.92, -4.32, -3.68, -3.91, -3.19, -2.34, -2.51, -1.63, -1.76, -1.92, -0.97, -0.97, 0.0, 0.0, 0.0, 0.0, 1.16, 1.16, 1.26, 2.46, 2.83, 3.8, 4.37, 5.03, 5.03, 5.31, 6.01, 8.94, 8.73, 7.6, 8.93, 6.95, 5.46, 6.64, 6.17, 5.95, 8.22, -0.0, -11.18, -11.2, -9.48, -7.93, -2.28, 1.52, 5.53, 12.93, 17.38, 16.63, 11.19, 5.94, 4.38, 4.81, 2.43, -2.43, -4.66, -2.2, 0.0, 0.0, -0.0, -0.0, -0.0, -0.0, -0.0, -0.0, -13.09, -13.09, -12.82, -12.82, -12.93, -12.37, -12.37, -12.37, -12.37, -12.37, -11.8, -11.8, -11.8, -11.8, -11.58, -10.94, -10.94, -10.94, -11.28, -10.72, -10.43, -9.82, -9.5, -9.21, -8.59, -8.24, -8.24, -7.6, -7.22, -6.56, -6.4, -6.4, -5.7, -5.2, -4.92, -4.32, -4.32, -3.68, -3.19, -3.19, -2.34, -2.51, -1.7, -1.76, -1.76, -0.97, -0.97, 0.0, 0.0, 0.0, 0.0, 0.0, 1.33, 1.26, 2.83, 2.69, 3.8, 3.6, 4.14, 4.14, 5.1, 8.33, 8.73, 8.91, 8.0, 7.27, 6.95, 4.96, 4.4, 4.6, 3.25, -0.0, 0.0, -12.52, -6.0, 0.0, 0.0, 1.78, 5.65, 11.31, 16.58, 16.47, 11.27, 7.53, 7.92, 6.72, 3.24, 0.0, -6.4, 0.0, 13.41, 12.07, 0.0, -8.85, -0.0, -0.0, -0.0, -0.0, -13.09, -13.09, -12.82, -12.82, -12.65, -12.37, -12.0, -11.8, -11.8, -11.8, -11.8, -11.8, -11.8, -11.23, -11.23, -10.94, -11.28, -11.28, -10.99, -10.99, -10.4, -10.12, -9.5, -9.5, -8.87, -8.24, -7.87, -7.6, -7.22, -6.56, -6.4, -5.92, -5.7, -5.2, -4.66, -4.08, -4.32, -3.68, -3.68, -2.88, -3.07, -2.34, -2.51, -1.7, -1.76, -1.76, -0.97, -1.02, 0.0, 0.0, 0.0, 0.0, 0.0, 1.26, 2.69, 2.69, 2.69, 3.6, 3.6, 3.6, 4.14, 7.89, 8.43, 8.48, 8.22, 6.95, 6.64, 6.64, 5.46, 3.11, 3.25, -0.0, -0.0, 0.0, 0.0, 9.48, 0.0, 4.18, 8.53, 11.7, 12.56, 12.13, 11.45, 12.28, 11.96, 8.2, 0.0, -0.0, -0.0, 9.17, 10.41, 10.41, -0.0, -0.0, -0.0, -0.0, -0.0, -0.0, -12.7, -12.7, -12.27, -12.27, -12.27, -12.0, -11.8, -11.8, -11.8, -11.8, -11.44, -11.23, -11.23, -10.94, -11.28, -11.28, -11.63, -11.33, -11.33, -10.99, -10.4, -10.09, -9.48, -9.19, -8.58, -8.24, -7.6, -7.22, -6.56, -6.56, -6.12, -5.7, -5.2, -5.2, -4.66, -4.08, -4.08, -3.53, -3.53, -2.88, -2.88, -3.07, -2.34, -2.51, -2.51, -1.76, -1.76, -0.93, -1.02, -1.14, 0.0, 0.0, 0.0, 0.0, 1.47, 1.4, 2.69, 2.54, 3.6, 3.6, 3.91, 7.2, 8.43, 8.17, 8.0, 8.55, 9.33, 6.64, 5.46, 3.11, 3.25, 3.39, 5.2, 8.53, 12.52, 9.48, 6.2, 10.12, 10.43, 11.88, 10.89, 9.54, 14.33, 17.9, 15.86, 10.91, -0.0, -0.0, 7.19, 8.85, 10.01, 8.53, 2.82, -0.0, -0.0, -0.0, -0.0, -0.0, -12.54, -12.54, -12.54, -12.27, -12.27, -11.8, -11.8, -11.8, -11.8, -11.44, -11.23, -11.23, -10.94, -11.28, -11.87, -11.58, -11.58, -11.58, -10.99, -11.28, -10.69, -9.77, -9.17, -8.87, -8.56, -8.24, -7.61, -7.24, -6.84, -6.84, -6.4, -5.7, -5.2, -5.2, -4.66, -4.66, -3.92, -3.92, -3.33, -3.53, -2.88, -2.88, -3.07, -2.34, -2.51, -2.51, -1.76, -1.92, -1.84, -1.02, -1.09, 0.0, 0.0, 0.0, 1.26, 1.4, 1.4, 2.54, 2.54, 2.54, 4.14, 5.37, 7.97, 7.76, 7.2, 6.32, 7.44, 8.91, 8.91, 8.18, 6.95, 5.7, 5.0, 8.53, 12.52, 12.96, 11.99, 12.72, 12.27, 11.33, 10.18, 10.15, 13.53, 16.98, 15.37, 8.53, 3.39, 7.27, 10.4, 11.2, 10.8, 8.22, 2.6, -0.0, -0.0, -0.0, -0.0, -0.0, -12.54, -12.16, -12.16, -11.9, -11.72, -11.72, -11.44, -11.44, -11.23, -11.23, -11.23, -11.28, -11.52, -11.87, -11.58, -11.92, -11.58, -11.28, -10.94, -10.69, -10.09, -9.48, -9.46, -8.85, -8.85, -8.24, -7.61, -7.24, -6.84, -6.84, -6.16, -5.7, -5.7, -5.0, -4.48, -4.48, -3.92, -3.92, -3.33, -3.53, -2.88, -2.88, -2.88, -3.07, -2.34, -2.51, -2.41, -2.6, -1.84, -1.84, -1.02, -1.09, 0.0, 0.0, 0.0, 1.2, 1.4, 1.32, 2.54, 2.54, 2.54, 4.56, 7.6, 7.35, 6.82, 6.32, 7.44, 9.11, 9.39, 9.83, 9.83, 9.83, 6.95, 5.0, 8.53, 12.52, 12.96, 12.96, 13.15, 11.8, 10.43, 10.43, 11.06, 10.08, 8.62, 5.94, 12.79, 10.18, 10.73, 10.0, 10.4, 9.67, 3.53, -0.0, -0.0, -0.0, -0.0, -0.0, -12.16, -12.16, -12.16, -11.99, -11.72, -11.72, -11.72, -11.23, -11.23, -11.23, -11.52, -11.52, -11.87, -11.92, -11.92, -11.58, -11.28, -10.94, -10.36, -10.09, -9.77, -9.48, -9.46, -8.85, -8.54, -8.24, -7.9, -7.54, -7.54, -6.87, -6.45, -6.45, -5.75, -5.26, -5.26, -4.73, -4.73, -4.15, -4.15, -3.53, -3.53, -3.53, -2.88, -2.88, -3.07, -2.34, -2.41, -2.41, -2.6, -1.84, -2.02, -0.98, -1.09, 0.0, 0.0, 0.0, 1.2, 1.32, 1.32, 2.54, 2.54, 4.56, 7.6, 7.12, 6.08, 5.06, 6.64, 7.81, 8.91, 9.83, 10.28, 9.75, 10.28, 9.83, 5.0, 8.22, 12.52, 12.96, 12.72, 11.53, 8.58, 10.12, 8.94, 4.88, 0.0, 14.54, 15.78, 12.07, 0.0, -0.0, 3.53, 7.9, -0.0, -0.0, -0.0, -0.0, -0.0, -0.0, -12.03, -12.03, -11.62, -11.62, -11.35, -11.16, -11.52, -11.23, -11.44, -11.52, -11.87, -11.87, -11.92, -11.58, -11.87, -11.28, -10.69, -10.36, -9.77, -9.77, -9.77, -9.17, -8.85, -8.85, -8.24, -8.24, -7.9, -7.26, -7.26, -6.87, -6.45, -6.2, -5.75, -5.75, -5.26, -4.73, -4.73, -4.15, -4.15, -4.15, -3.53, -3.53, -3.53, -2.88, -3.07, -3.07, -2.95, -2.41, -2.41, -2.49, -1.84, -1.93, -1.09, 0.0, 0.0, 0.0, 0.0, 1.4, 1.32, 2.54, 2.4, 3.91, 6.8, 7.31, 5.77, 4.95, 4.2, 5.21, 6.95, 8.4, 9.83, 10.28, 9.2, 10.28, 7.27, 7.9, 12.07, 11.2, 9.17, 9.17, 9.48, 9.8, 8.18, 0.0, 0.0, 19.08, 16.22, 12.96, 8.22, -4.6, -2.19, -5.0, -8.22, -5.2, -0.0, -0.0, -0.0, -0.0, -11.88, -11.88, -11.62, -11.62, -11.62, -11.16, -11.72, -11.44, -11.8, -11.87, -11.87, -11.87, -11.87, -11.28, -10.94, -10.36, -10.36, -9.77, -9.77, -9.77, -9.48, -9.17, -8.85, -8.24, -8.24, -7.61, -7.91, -7.56, -7.56, -7.18, -6.61, -6.2, -6.5, -6.04, -5.54, -5.0, -5.0, -4.4, -4.4, -4.4, -3.76, -3.76, -3.76, -3.76, -3.76, -3.07, -3.07, -3.16, -2.41, -2.49, -2.49, -1.76, -1.04, -0.99, 0.0, 0.0, 0.0, 0.0, 1.32, 2.54, 3.4, 3.91, 6.08, 7.6, 5.84, 4.87, 3.77, 2.4, 2.49, 4.6, 7.27, 0.0, 0.0, 10.28, 10.28, 10.73, 11.62, 10.8, 8.85, 8.85, 9.17, 9.8, 4.82, 5.17, 7.37, 18.78, 14.9, 12.96, 10.04, -2.28, -3.53, -9.3, -11.18, -10.0, -3.39, -0.0, -0.0, -0.0, -11.5, -11.5, -11.88, -11.62, -11.62, -11.72, -11.44, -11.8, -11.52, -11.52, -11.52, -11.28, -10.94, -10.36, -10.65, -10.06, -9.77, -9.77, -9.77, -9.77, -9.17, -9.46, -8.85, -8.24, -7.93, -7.61, -7.91, -7.56, -7.27, -6.9, -6.9, -6.5, -6.5, -6.04, -5.54, -5.54, -5.0, -5.0, -4.4, -4.4, -3.76, -3.76, -3.76, -3.76, -3.76, -3.76, -3.07, -3.16, -3.16, -2.41, -2.49, -2.71, -1.84, -1.04, -1.11, 0.0, 0.0, 0.0, 1.32, 1.32, 2.99, 3.91, 4.56, 7.37, 7.47, 5.69, 3.99, 2.21, 2.49, -0.0, -0.0, -0.0, -0.0, -0.0, 6.95, 8.8, 10.73, 11.62, 8.85, 5.6, 11.2, 9.48, 7.63, 9.28, 12.19, 17.88, 13.44, 10.73, 9.6, -0.0, -5.0, -10.4, -11.62, -11.18, -5.0, -0.0, -0.0, -0.0, -11.5, -11.5, -11.88, -11.62, -11.99, -11.72, -11.44, -11.44, -11.58, -10.94, -10.94, -10.65, -10.65, -10.06, -10.06, -9.77, -9.77, -9.77, -9.77, -9.17, -9.17, -8.85, -8.85, -8.24, -7.61, -7.61, -7.27, -7.27, -7.27, -6.9, -6.9, -6.5, -6.5, -6.04, -5.54, -5.54, -5.0, -5.0, -4.4, -4.4, -4.4, -3.76, -3.61, -3.61, -3.61, -3.85, -3.85, -3.16, -3.16, -3.16, -2.49, -2.49, -1.84, -1.84, -0.99, -1.11, 0.0, 0.0, 0.0, 1.32, 1.32, 2.99, 3.6, 5.69, 8.05, 6.44, 4.71, 3.35, 1.2, -0.0, -0.0, -0.0, -0.0, 7.27, 10.28, 10.28, 10.28, 0.0, 0.0, 0.0, 0.0, 4.52, 3.51, 6.04, 4.05, 0.0, 15.27, 11.28, 10.84, 3.53, -6.97, -8.22, -11.03, -11.62, -11.18, -0.0, -0.0, -0.0, -11.5, -11.5, -11.88, -11.62, -11.62, -11.16, -11.16, -10.88, -10.65, -10.65, -10.3, -10.06, -10.06, -10.06, -9.77, -9.77, -9.77, -9.48, -9.17, -9.17, -8.85, -8.85, -8.53, -7.93, -7.61, -7.32, -6.98, -7.27, -7.27, -6.9, -6.9, -6.5, -6.04, -5.8, -5.32, -5.62, -5.3, -5.3, -4.68, -4.68, -4.4, -4.23, -3.61, -3.61, -3.85, -3.85, -3.85, -3.16, -3.16, -3.16, -3.25, -2.39, -2.47, -1.84, -1.75, -0.99, 0.0, 0.0, 0.0, 0.0, 1.32, 1.58, 2.99, 4.46, 5.69, 8.49, 6.01, 3.8, 1.2, -0.0, -0.0, -0.0, -0.0, 6.95, 9.83, 9.83, 9.83, 0.0, 0.0, 0.0, -12.96, -6.2, -3.07, 0.0, 0.0, -5.44, 0.0, 14.75, 10.84, 10.0, -3.68, -6.97, -10.8, -11.62, -11.18, -7.9, -7.9, -7.9, -11.34, -11.34, -11.34, -11.07, -11.07, -10.8, -10.59, -10.59, -10.3, -10.06, -10.06, -10.06, -10.06, -10.06, -9.77, -9.77, -9.48, -9.17, -9.46, -8.85, -8.85, -8.53, -8.24, -7.93, -7.61, -7.32, -6.98, -7.27, -6.9, -6.63, -6.24, -6.24, -5.8, -5.8, -5.32, -5.32, -5.09, -5.3, -5.3, -4.68, -4.68, -4.5, -4.5, -3.85, -3.85, -3.85, -3.85, -3.39, -3.39, -3.39, -3.25, -2.39, -2.59, -1.68, -1.75, -0.99, -0.94, 0.0, 0.0, 0.0, 0.0, 1.32, 1.58, 2.06, 4.71, 7.6, 8.94, 4.96, 1.47, -0.0, -0.0, -0.0, -0.0, 6.64, 0.0, 0.0, 0.0, 0.0, 0.0, -11.62, -12.52, -11.99, -6.6, -4.79, -1.97, -6.72, -13.91, 11.06, 11.2, 11.62, 0.0, -8.22, -11.71, -12.07, -11.62, -11.62, -11.62, -11.62, -10.96, -10.96, -10.96, -10.96, -10.51, -10.51, -10.23, -10.01, -10.35, -10.06, -10.06, -10.06, -10.06, -9.77, -9.48, -9.17, -9.17, -9.46, -8.85, -8.85, -8.85, -8.24, -8.24, -7.93, -7.32, -7.32, -6.98, -7.27, -6.63, -6.63, -6.24, -6.24, -5.8, -5.8, -5.32, -5.32, -5.32, -5.09, -5.09, -5.09, -4.5, -4.5, -4.5, -4.5, -3.85, -3.85, -3.85, -3.39, -3.39, -3.39, -3.25, -2.39, -2.59, -2.47, -1.75, -1.75, -0.94, -1.05, 0.0, 0.0, 0.0, 0.0, 0.0, 1.67, 2.06, 2.69, 4.0, 8.94, 4.0, 2.17, -0.0, -0.0, -0.0, -0.0, -0.0, -0.0, 0.0, 0.0, 0.0, 0.0, -12.52, -11.99, -8.85, -6.52, -3.75, -2.3, -6.22, -16.09, 0.0, 0.0, 0.0, -8.53, -12.52, -12.96, -12.07, -12.07, -12.07, -12.07, -10.96, -10.96, -10.96, -10.79, -10.79, -10.51, -10.3, -10.01, -10.01, -9.72, -9.72, -10.06, -9.72, -9.46, -9.46, -9.46, -8.85, -8.85, -8.85, -8.85, -8.53, -8.24, -7.93, -7.93, -7.32, -6.98, -6.98, -7.27, -6.63, -6.63, -6.24, -6.24, -5.8, -5.8, -5.8, -5.32, -5.32, -5.62, -5.09, -5.09, -5.09, -4.5, -4.5, -4.5, -4.5, -3.85, -4.13, -4.13, -3.39, -3.39, -3.25, -2.39, -2.39, -2.47, -1.68, -1.75, -1.94, -0.94, -1.05, 0.0, 0.0, 0.0, 0.0, 0.0, 0.0, 2.06, 0.0, 4.0, 8.94, 4.0, 2.97, -0.0, -0.0, -0.0, -0.0, -0.0, -0.0, 0.0, 0.0, 0.0, -12.07, -12.3, -10.12, -6.16, -3.45, -1.97, -2.42, -3.9, -10.12, -9.8, -5.6, -5.6, -8.53, -11.2, -11.2, -8.53, -8.53, -8.53, -11.06, -11.06, -10.79, -10.41, -10.41, -10.23, -9.94, -10.01, -10.01, -9.72, -9.72, -9.46, -9.46, -9.46, -9.13, -8.85, -8.85, -8.85, -8.85, -8.53, -8.24, -8.24, -7.93, -7.61, -7.32, -6.98, -6.98, -7.27, -6.63, -6.63, -6.24, -6.24, -5.8, -5.8, -5.8, -5.32, -5.32, -5.62, -5.09, -5.09, -5.09, -5.09, -4.5, -4.5, -4.8, -4.13, -4.13, -4.13, -4.13, -3.25, -3.25, -2.39, -2.59, -2.47, -1.68, -1.75, -1.75, -0.99, -0.99, -1.05, -1.05, 0.0, 0.0, 0.0, 0.0, 0.0, 0.0, 0.0, 0.0, 8.94, 9.39, 4.2, 4.2, -0.0, -0.0, -0.0, -0.0, 0.0, 0.0, 0.0, -11.62, -10.79, -9.8, -5.81, -3.36, 0.0, 0.0, 0.0, 0.0, 0.0, -3.36, -4.24, -5.8, -5.6, -3.96, -3.96, -3.96, -3.96, -11.06, -11.06, -10.79, -10.41, -10.41, -10.23, -9.94, -10.01, -10.01, -9.72, -9.72, -9.46, -9.46, -9.46, -9.13, -8.85, -8.85, -8.85, -8.85, -8.53, -8.24, -8.24, -7.93, -7.61, -7.32, -6.98, -6.98, -7.27, -6.63, -6.63, -6.24, -6.24, -5.8, -5.8, -5.8, -5.32, -5.32, -5.62, -5.09, -5.09, -5.09, -5.09, -4.5, -4.5, -4.8, -4.13, -4.13, -4.13, -4.13, -3.25, -3.25, -2.39, -2.59, -2.47, -1.68, -1.75, -1.75, -0.99, -0.99, -1.05, -1.05, 0.0, 0.0, 0.0, 0.0, 0.0, 0.0, 0.0, 0.0, 8.94, 9.39, 4.2, 4.2, -0.0, -0.0, -0.0, 0.0, 0.0, 0.0, 0.0, -11.62, -8.85, -9.48, -6.4, -3.16, 0.0, 1.69, 3.19, 3.44, 1.6, 0.0, 0.0, -2.72, -3.25, -3.04, -2.93, -2.93, -2.93]}]